I-5 : South of SR-46 Atmospheric Data: 11/28/2020 Summary  Detailed Graphs  Station List

  Temperature     Wind Precipitation Visibility
Timestamp Wet
Bulb
Dew-
point
24-hr
Max
24-hr
Min
Relative
Humidity
Atmospheric
Pressure
Avg
Speed
Avg
Dir
Spot
Speed
Spot
Dir
Max
Speed
Max
Dir
  Rate Situation Start End 1 hr 3 hr 6 hr 12 hr 24 hr   Situation
Date Time °F °F °F °F % in Hg mph ° mph ° mph ° Y/N in/hr text Date Time Date Time in in in in in mi text
11/28/2020 12:00 AM 30.38 -8.32 66.20 28.40 14.0 x 0.00 N 0.00 N 2.01 N x x Other     x x x x x 0.02 Unknown
11/28/2020 12:01 AM 30.38 -8.32 66.20 28.40 14.0 x 0.22 N 0.00 S 2.01 N x x Other     x x x x x 0.02 Unknown
11/28/2020 12:02 AM 30.38 -8.32 66.20 28.40 14.0 x 0.45 S 0.00 S 1.79 N x x Other     x x x x x 0.02 Unknown
11/28/2020 12:03 AM 30.38 -8.32 66.20 28.40 14.0 x 0.45 SW 0.67 SW 1.79 N x x Other     x x x x x 0.02 Unknown
11/28/2020 12:04 AM 30.20 -8.32 66.20 28.40 14.0 x 0.22 SW 0.00 S 1.79 S x x Other     x x x x x 0.02 Unknown
11/28/2020 12:05 AM 30.02 -8.50 66.20 28.40 14.0 x 0.67 SW 1.79 S 1.79 S x x Other     x x x x x 0.02 Unknown
11/28/2020 12:06 AM 30.02 -8.50 66.20 28.40 14.0 x 1.34 S 1.12 S 2.01 S x x Other     x x x x x 0.02 Unknown
11/28/2020 12:07 AM 29.84 -8.68 66.20 28.40 14.0 x 1.34 S 1.79 SW 2.01 S x x Other     x x x x x 0.02 Unknown
11/28/2020 12:08 AM 29.84 -8.68 66.20 28.40 14.0 x 1.12 S 0.45 SW 2.01 S x x Other     x x x x x 0.02 Unknown
11/28/2020 12:09 AM 30.02 -8.50 66.20 28.40 14.0 x 0.67 SW 0.00 SW 2.01 S x x Other     x x x x x 0.02 Unknown
11/28/2020 12:10 AM 30.02 -8.50 66.20 28.40 14.0 x 0.45 SW 0.67 SW 2.01 S x x Other     x x x x x 0.02 Unknown
11/28/2020 12:11 AM 30.02 -8.50 66.20 28.40 14.0 x 0.45 S 0.45 S 2.01 S x x Other     x x x x x 0.02 Unknown
11/28/2020 12:12 AM 30.02 -8.50 66.20 28.40 14.0 x 0.45 S 0.45 S 2.01 S x x Other     x x x x x 0.02 Unknown
11/28/2020 12:13 AM 30.02 -8.50 66.20 28.40 14.0 x 0.67 S 1.34 SW 2.01 S x x Other     x x x x x 0.02 Unknown
11/28/2020 12:14 AM 30.02 -8.50 66.20 28.40 14.0 x 1.12 S 1.12 S 2.24 S x x Other     x x x x x 0.02 Unknown
11/28/2020 12:15 AM 30.02 -9.04 66.20 28.40 14.0 x 0.89 SW 0.00 SW 2.24 S x x Other     x x x x x 0.02 Unknown
11/28/2020 12:16 AM 30.02 -9.04 66.20 28.40 14.0 x 0.22 SW 0.00 SW 2.24 S x x Other     x x x x x 0.02 Unknown
11/28/2020 12:17 AM 30.02 -9.04 66.20 28.40 14.0 x 0.00 SW 0.00 SE 2.24 S x x Other     x x x x x 0.02 Unknown
11/28/2020 12:18 AM 30.20 -8.86 66.20 28.40 14.0 x 0.67 S 0.00 SE 2.68 S x x Other     x x x x x 0.02 Unknown
11/28/2020 12:19 AM 30.20 -8.86 66.20 28.40 14.0 x 1.34 SE 2.24 S 2.91 S x x Other     x x x x x 0.02 Unknown
11/28/2020 12:20 AM 30.38 -8.68 66.20 28.40 14.0 x 1.34 SE 0.22 S 2.91 S x x Other     x x x x x 0.02 Unknown
11/28/2020 12:21 AM 30.38 -8.68 66.20 28.40 14.0 x 0.67 S 0.00 S 2.91 S x x Other     x x x x x 0.02 Unknown
11/28/2020 12:22 AM 30.56 -8.50 66.20 28.40 14.0 x 0.00 S 0.00 S 2.91 S x x Other     x x x x x 0.02 Unknown
11/28/2020 12:23 AM 30.56 -9.04 66.20 28.40 13.0 x 0.22 S 0.00 W 2.91 S x x Other     x x x x x 0.02 Unknown
11/28/2020 12:24 AM 30.74 -9.04 66.20 28.40 13.0 x 0.22 NW 0.00 W 2.91 S x x Other     x x x x x 0.02 Unknown
11/28/2020 12:25 AM 30.56 -9.04 66.20 28.40 13.0 x 0.22 SW 1.57 SW 2.91 S x x Other     x x x x x 0.02 Unknown
11/28/2020 12:26 AM 30.56 -9.76 66.20 28.40 13.0 x 1.12 SW 1.79 SW 2.91 S x x Other     x x x x x 0.02 Unknown
11/28/2020 12:27 AM 30.38 -9.76 66.20 28.40 13.0 x 1.79 SW 2.01 S 2.91 S x x Other     x x x x x 0.02 Unknown
11/28/2020 12:28 AM 30.20 -10.12 66.20 28.40 13.0 x 2.01 S 2.01 S 2.91 S x x Other     x x x x x 0.02 Unknown
11/28/2020 12:29 AM 30.02 -10.12 66.20 28.40 13.0 x 2.01 S 2.01 S 2.68 SE x x Other     x x x x x 0.02 Unknown
11/28/2020 12:30 AM 29.84 -9.76 66.20 28.40 13.0 x 2.01 S 1.79 S 2.24 SW x x Other     x x x x x 0.02 Unknown
11/28/2020 12:31 AM 29.66 -9.94 66.20 28.40 13.0 x 2.01 S 1.79 SW 2.24 SW x x Other     x x x x x 0.02 Unknown
11/28/2020 12:32 AM 29.66 -9.94 66.20 28.40 13.0 x 2.01 SW 2.01 SW 2.46 SW x x Other     x x x x x 0.02 Unknown
11/28/2020 12:33 AM 29.66 -10.12 66.20 28.40 13.0 x 2.01 SW 2.01 SW 2.46 SW x x Other     x x x x x 0.02 Unknown
11/28/2020 12:34 AM 29.66 -9.94 66.20 28.40 13.0 x 2.01 SW 1.57 SW 2.46 SW x x Other     x x x x x 0.02 Unknown
11/28/2020 12:35 AM 29.66 -9.94 66.20 28.40 13.0 x 2.24 SW 2.68 SW 2.91 SW x x Other     x x x x x 0.02 Unknown
11/28/2020 12:36 AM 29.66 -9.94 66.20 28.40 13.0 x 2.68 SW 2.91 SW 2.91 SW x x Other     x x x x x 0.02 Unknown
11/28/2020 12:38 AM 29.66 -9.58 66.20 28.40 14.0 x 2.68 SW 2.68 SW 3.13 SW x x Other     x x x x x 0.02 Unknown
11/28/2020 12:39 AM 29.66 -9.40 66.20 28.40 14.0 x 2.46 SW 2.24 SW 3.13 SW x x Other     x x x x x 0.02 Unknown
11/28/2020 12:40 AM 29.66 -9.40 66.20 28.40 14.0 x 2.46 SW 2.46 SW 3.13 SW x x Other     x x x x x 0.02 Unknown
11/28/2020 12:41 AM 29.66 -9.40 66.20 28.40 14.0 x 2.46 SW 2.68 SW 3.13 SW x x Other     x x x x x 0.02 Unknown
11/28/2020 12:42 AM 29.84 -9.22 66.20 28.40 14.0 x 2.46 SW 2.01 SW 3.13 SW x x Other     x x x x x 0.02 Unknown
11/28/2020 12:43 AM 29.84 -9.22 66.20 28.40 14.0 x 2.24 SW 2.01 SW 3.13 SW x x Other     x x x x x 0.02 Unknown
11/28/2020 12:44 AM 29.84 -9.22 66.20 28.40 14.0 x 2.01 SW 2.01 SW 3.13 SW x x Other     x x x x x 0.02 Unknown
11/28/2020 12:45 AM 29.84 -9.22 66.20 28.40 14.0 x 2.01 SW 1.57 SW 3.13 SW x x Other     x x x x x 0.02 Unknown
11/28/2020 12:46 AM 30.02 -9.04 66.20 28.40 14.0 x 1.79 SW 1.57 SW 3.13 SW x x Other     x x x x x 0.02 Unknown
11/28/2020 12:47 AM 30.02 -9.04 66.20 28.40 14.0 x 1.34 SW 1.12 SW 3.13 SW x x Other     x x x x x 0.02 Unknown
11/28/2020 12:48 AM 30.02 -9.04 66.20 28.40 14.0 x 1.12 SW 1.34 SW 3.13 SW x x Other     x x x x x 0.02 Unknown
11/28/2020 12:49 AM 30.02 -9.22 66.20 28.40 14.0 x 0.89 W 0.45 SW 3.13 S x x Other     x x x x x 0.02 Unknown
11/28/2020 12:50 AM 29.84 -9.22 66.20 28.40 14.0 x 0.45 SW 0.00 W 3.13 S x x Other     x x x x x 0.02 Unknown
11/28/2020 12:51 AM 30.02 -9.04 66.20 28.40 14.0 x 0.45 SW 0.67 W 2.68 SW x x Other     x x x x x 0.02 Unknown
11/28/2020 12:52 AM 30.02 -9.04 66.20 28.40 14.0 x 1.12 SW 1.34 SW 2.46 S x x Other     x x x x x 0.02 Unknown
11/28/2020 12:53 AM 30.02 -9.04 66.20 28.40 14.0 x 1.34 SW 1.79 W 2.46 S x x Other     x x x x x 0.02 Unknown
11/28/2020 12:54 AM 29.84 -9.22 66.20 28.40 14.0 x 1.79 W 2.01 SW 2.46 SW x x Other     x x x x x 0.02 Unknown
11/28/2020 12:55 AM 29.66 -9.40 66.20 28.40 14.0 x 2.01 W 2.01 W 2.46 W x x Other     x x x x x 0.02 Unknown
11/28/2020 12:56 AM 29.66 -9.58 66.20 28.40 14.0 x 2.24 W 2.46 W 2.91 W x x Other     x x x x x 0.02 Unknown
11/28/2020 12:57 AM 29.48 -9.76 66.20 28.40 14.0 x 2.46 W 2.24 W 2.91 W x x Other     x x x x x 0.02 Unknown
11/28/2020 12:58 AM 29.30 -9.76 66.20 28.40 14.0 x 2.24 W 2.24 W 2.91 W x x Other     x x x x x 0.02 Unknown
11/28/2020 12:59 AM 29.12 -9.94 66.20 28.40 14.0 x 2.24 W 1.79 W 2.91 W x x Other     x x x x x 0.02 Unknown
11/28/2020 01:00 AM 29.12 -9.94 66.20 28.40 14.0 x 2.01 W 2.01 W 2.91 W x x Other     x x x x x 0.02 Unknown
11/28/2020 01:01 AM 29.12 -9.94 66.20 28.40 14.0 x 1.79 W 1.57 W 2.91 W x x Other     x x x x x 0.02 Unknown
11/28/2020 01:02 AM 29.12 -9.94 66.20 28.40 14.0 x 1.79 W 1.79 W 2.91 W x x Other     x x x x x 0.02 Unknown
11/28/2020 01:03 AM 29.12 -9.94 66.20 28.40 14.0 x 1.79 W 1.57 W 2.91 W x x Other     x x x x x 0.02 Unknown
11/28/2020 01:04 AM 29.12 -9.94 66.20 28.40 14.0 x 1.57 W 2.01 W 2.91 W x x Other     x x x x x 0.02 Unknown
11/28/2020 01:05 AM 29.12 -9.94 66.20 28.40 14.0 x 2.01 W 2.01 SW 2.91 W x x Other     x x x x x 0.02 Unknown
11/28/2020 01:06 AM 29.30 -9.76 66.20 28.40 14.0 x 2.24 SW 2.24 SW 2.68 SW x x Other     x x x x x 0.02 Unknown
11/28/2020 01:07 AM 29.30 -9.76 66.20 28.40 14.0 x 2.24 SW 1.34 SW 2.68 SW x x Other     x x x x x 0.02 Unknown
11/28/2020 01:08 AM 29.30 -9.76 66.20 28.40 14.0 x 1.79 SW 2.01 SW 2.68 SW x x Other     x x x x x 0.02 Unknown
11/28/2020 01:09 AM 29.30 -9.76 66.20 28.40 14.0 x 1.79 SW 2.01 SW 2.68 SW x x Other     x x x x x 0.02 Unknown
11/28/2020 01:10 AM 29.30 -9.76 66.20 28.40 14.0 x 1.57 SW 1.12 SW 2.68 SW x x Other     x x x x x 0.02 Unknown
11/28/2020 01:11 AM 29.30 -9.76 66.20 28.40 14.0 x 1.12 SW 1.34 W 2.68 SW x x Other     x x x x x 0.02 Unknown
11/28/2020 01:12 AM 29.12 -9.94 66.20 28.40 14.0 x 1.12 SW 2.24 SW 2.68 SW x x Other     x x x x x 0.02 Unknown
11/28/2020 01:13 AM 29.30 -9.76 66.20 28.40 14.0 x 1.57 SW 2.01 SW 2.68 SW x x Other     x x x x x 0.02 Unknown
11/28/2020 01:14 AM 29.30 -9.76 66.20 28.40 14.0 x 1.79 SW 1.79 SW 2.68 SW x x Other     x x x x x 0.02 Unknown
11/28/2020 01:15 AM 29.12 -9.94 66.20 28.40 14.0 x 2.01 SW 2.01 SW 2.46 SW x x Other     x x x x x 0.02 Unknown
11/28/2020 01:16 AM 29.12 -9.94 66.20 28.40 14.0 x 2.01 SW 2.46 SW 2.46 SW x x Other     x x x x x 0.02 Unknown
11/28/2020 01:17 AM 29.12 -9.94 66.20 28.40 14.0 x 2.46 SW 2.46 SW 2.91 SW x x Other     x x x x x 0.02 Unknown
11/28/2020 01:18 AM 29.12 -9.94 66.20 28.40 14.0 x 2.46 SW 2.68 SW 2.91 SW x x Other     x x x x x 0.02 Unknown
11/28/2020 01:19 AM 28.94 -10.12 66.20 28.40 14.0 x 2.46 SW 2.68 SW 2.91 SW x x Other     x x x x x 0.02 Unknown
11/28/2020 01:20 AM 28.76 -10.30 66.20 28.40 14.0 x 2.68 SW 2.24 S 3.36 SW x x Other     x x x x x 0.02 Unknown
11/28/2020 01:21 AM 28.76 -10.30 66.20 28.40 14.0 x 2.68 SW 2.68 SW 3.36 SW x x Other     x x x x x 0.02 Unknown
11/28/2020 01:22 AM 28.76 -10.30 66.20 28.40 14.0 x 2.68 SW 2.91 SW 3.36 SW x x Other     x x x x x 0.02 Unknown
11/28/2020 01:23 AM 28.76 -10.30 66.20 28.40 14.0 x 3.13 SW 3.36 SW 3.36 SW x x Other     x x x x x 0.02 Unknown
11/28/2020 01:24 AM 28.76 -10.30 66.20 28.40 14.0 x 2.91 SW 1.79 S 3.36 SW x x Other     x x x x x 0.02 Unknown
11/28/2020 01:25 AM 28.76 -10.30 66.20 28.40 14.0 x 2.91 SW 2.91 SW 3.36 SW x x Other     x x x x x 0.02 Unknown
11/28/2020 01:26 AM 28.58 -10.48 66.20 28.40 14.0 x 2.68 SW 2.91 SW 3.36 SW x x Other     x x x x x 0.02 Unknown
11/28/2020 01:27 AM 28.58 -10.48 66.20 28.40 14.0 x 2.68 SW 2.68 SW 3.36 SW x x Other     x x x x x 0.02 Unknown
11/28/2020 01:28 AM 28.58 -10.48 66.20 28.40 14.0 x 2.91 SW 2.91 SW 3.36 SW x x Other     x x x x x 0.02 Unknown
11/28/2020 01:29 AM 28.58 -10.48 66.20 28.40 14.0 x 2.46 SW 1.34 W 3.36 SW x x Other     x x x x x 0.02 Unknown
11/28/2020 01:30 AM 28.58 -10.12 66.20 28.40 14.0 x 1.34 SW 0.00 SW 3.36 SW x x Other     x x x x x 0.02 Unknown
11/28/2020 01:31 AM 28.58 -10.12 66.20 28.40 14.0 x 0.22 SW 0.45 SW 3.36 SW x x Other     x x x x x 0.02 Unknown
11/28/2020 01:32 AM 28.58 -10.12 66.20 28.40 14.0 x 0.45 SW 0.22 SW 3.36 SW x x Other     x x x x x 0.02 Unknown
11/28/2020 01:33 AM 28.40 -10.12 66.20 28.40 14.0 x 0.67 SW 1.12 W 3.13 SW x x Other     x x x x x 0.02 Unknown
11/28/2020 01:34 AM 28.40 -10.12 66.20 28.40 14.0 x 0.89 SW 0.67 W 3.13 SW x x Other     x x x x x 0.02 Unknown
11/28/2020 01:35 AM 28.58 -9.94 66.20 28.40 14.0 x 0.89 W 1.79 W 3.13 SW x x Other     x x x x x 0.02 Unknown
11/28/2020 01:36 AM 28.58 -9.76 66.20 28.40 14.0 x 1.34 SW 1.79 SW 3.13 SW x x Other     x x x x x 0.02 Unknown
11/28/2020 01:37 AM 28.58 -9.76 66.20 28.40 14.0 x 1.57 SW 1.57 SW 3.13 SW x x Other     x x x x x 0.02 Unknown
11/28/2020 01:38 AM 28.76 -9.76 66.20 28.40 14.0 x 1.57 SW 1.57 SW 2.68 SW x x Other     x x x x x 0.02 Unknown
11/28/2020 01:39 AM 28.76 -9.76 66.20 28.40 14.0 x 1.79 SW 1.79 SW 2.24 SW x x Other     x x x x x 0.02 Unknown
11/28/2020 01:40 AM 28.94 -9.58 66.20 28.40 14.0 x 1.79 SW 1.34 SW 2.24 SW x x Other     x x x x x 0.02 Unknown
11/28/2020 01:41 AM 28.94 -9.58 66.20 28.40 14.0 x 1.57 SW 1.79 SW 2.24 SW x x Other     x x x x x 0.02 Unknown
11/28/2020 01:42 AM 28.94 -9.40 66.20 28.40 14.0 x 1.57 SW 1.34 SW 2.24 SW x x Other     x x x x x 0.02 Unknown
11/28/2020 01:43 AM 28.94 -9.40 66.20 28.40 14.0 x 1.79 SW 2.01 SW 2.46 SW x x Other     x x x x x 0.02 Unknown
11/28/2020 01:44 AM 28.94 -9.40 66.20 28.40 14.0 x 2.46 SW 2.68 SW 2.91 SW x x Other     x x x x x 0.02 Unknown
11/28/2020 01:45 AM 28.94 -9.40 66.20 28.40 14.0 x 2.91 SW 3.36 SW 3.36 SW x x Other     x x x x x 0.02 Unknown
11/28/2020 01:46 AM 28.94 -9.58 66.20 28.40 14.0 x 3.13 SW 3.13 SW 3.58 SW x x Other     x x x x x 0.02 Unknown
11/28/2020 01:47 AM 28.94 -9.58 66.20 28.40 14.0 x 3.13 SW 2.91 SW 3.58 SW x x Other     x x x x x 0.02 Unknown
11/28/2020 01:48 AM 28.94 -9.58 66.20 28.40 14.0 x 3.13 SW 3.58 SW 3.58 SW x x Other     x x x x x 0.02 Unknown
11/28/2020 01:49 AM 28.94 -9.40 66.20 28.40 14.0 x 3.13 SW 3.13 SW 3.58 SW x x Other     x x x x x 0.02 Unknown
11/28/2020 01:50 AM 28.94 -9.40 66.20 28.40 14.0 x 2.91 SW 1.79 W 3.58 SW x x Other     x x x x x 0.02 Unknown
11/28/2020 01:51 AM 29.12 -9.40 66.20 28.40 14.0 x 2.91 SW 3.58 SW 3.58 SW x x Other     x x x x x 0.02 Unknown
11/28/2020 01:52 AM 28.94 -9.58 66.20 28.40 14.0 x 3.36 SW 4.03 SW 4.47 SW x x Other     x x x x x 0.02 Unknown
11/28/2020 01:53 AM 28.94 -9.58 66.20 28.40 14.0 x 3.80 SW 3.80 SW 5.82 S x x Other     x x x x x 0.02 Unknown
11/28/2020 01:54 AM 28.94 -9.58 66.20 28.40 14.0 x 3.80 SW 3.36 SW 5.82 S x x Other     x x x x x 0.02 Unknown
11/28/2020 01:55 AM 28.76 -9.76 66.20 28.40 14.0 x 3.80 SW 3.58 SW 5.82 S x x Other     x x x x x 0.02 Unknown
11/28/2020 01:56 AM 28.58 -9.94 66.20 28.40 14.0 x 3.80 SW 3.58 SW 5.82 S x x Other     x x x x x 0.02 Unknown
11/28/2020 01:57 AM 28.58 -10.12 66.20 28.40 14.0 x 3.80 SW 3.58 SW 5.82 S x x Other     x x x x x 0.02 Unknown
11/28/2020 01:58 AM 28.40 -10.12 66.20 28.40 14.0 x 3.58 SW 3.58 SW 5.82 S x x Other     x x x x x 0.02 Unknown
11/28/2020 01:59 AM 28.40 -10.12 66.20 28.40 14.0 x 3.36 SW 3.58 SW 5.82 S x x Other     x x x x x 0.02 Unknown
11/28/2020 02:00 AM 28.22 -10.30 66.20 28.40 14.0 x 3.58 SW 3.58 SW 5.82 S x x Other     x x x x x 0.02 Unknown
11/28/2020 02:01 AM 28.04 -10.48 66.20 28.40 14.0 x 3.58 SW 2.91 SW 5.82 S x x Other     x x x x x 0.02 Unknown
11/28/2020 02:02 AM 28.04 -10.48 66.20 28.40 14.0 x 3.36 SW 2.91 SW 5.82 S x x Other     x x x x x 0.02 Unknown
11/28/2020 02:03 AM 28.04 -10.48 66.20 28.40 14.0 x 2.68 SW 1.57 SW 4.03 SW x x Other     x x x x x 0.02 Unknown
11/28/2020 02:04 AM 27.86 -10.66 66.20 28.40 14.0 x 1.79 SW 2.01 S 4.03 SW x x Other     x x x x x 0.02 Unknown
11/28/2020 02:05 AM 27.86 -10.66 66.20 28.40 14.0 x 1.34 S 1.34 S 4.03 SW x x Other     x x x x x 0.02 Unknown
11/28/2020 02:06 AM 27.68 -10.66 66.20 28.40 14.0 x 1.57 S 1.57 SW 4.03 SW x x Other     x x x x x 0.02 Unknown
11/28/2020 02:07 AM 27.68 -10.66 66.20 28.40 14.0 x 1.57 S 2.46 S 4.03 SW x x Other     x x x x x 0.02 Unknown
11/28/2020 02:08 AM 27.68 -10.84 66.20 28.40 14.0 x 2.24 S 2.46 SW 4.03 SW x x Other     x x x x x 0.02 Unknown
11/28/2020 02:10 AM 27.68 -10.84 66.20 28.40 14.0 x 3.36 S 3.80 S 4.92 S x x Other     x x x x x 0.02 Unknown
11/28/2020 02:11 AM 27.50 -11.02 66.20 28.40 14.0 x 3.58 S 2.91 S 4.92 S x x Other     x x x x x 0.02 Unknown
11/28/2020 02:12 AM 27.50 -10.48 66.20 28.40 14.0 x 2.68 SW 2.01 SW 4.92 S x x Other     x x x x x 0.02 Unknown
11/28/2020 02:13 AM 27.50 -10.48 66.20 28.40 14.0 x 1.79 SW 2.01 S 4.92 S x x Other     x x x x x 0.02 Unknown
11/28/2020 02:14 AM 27.50 -10.48 66.20 28.40 14.0 x 1.34 SW 0.89 W 4.92 S x x Other     x x x x x 0.02 Unknown
11/28/2020 02:15 AM 27.50 -10.48 66.20 28.40 14.0 x 0.89 W 0.45 W 4.92 S x x Other     x x x x x 0.02 Unknown
11/28/2020 02:16 AM 27.32 -10.66 66.20 28.40 14.0 x 0.89 W 1.34 SW 4.92 S x x Other     x x x x x 0.02 Unknown
11/28/2020 02:17 AM 27.32 -10.66 66.20 28.40 14.0 x 0.89 SW 1.79 W 4.92 S x x Other     x x x x x 0.02 Unknown
11/28/2020 02:18 AM 27.32 -10.66 66.20 28.40 14.0 x 1.12 SW 1.34 SW 4.92 S x x Other     x x x x x 0.02 Unknown
11/28/2020 02:19 AM 27.50 -10.48 66.20 28.40 14.0 x 1.79 SW 3.36 S 4.70 S x x Other     x x x x x 0.02 Unknown
11/28/2020 02:20 AM 27.50 -10.48 66.20 28.40 14.0 x 2.91 S 3.13 S 4.25 S x x Other     x x x x x 0.02 Unknown
11/28/2020 02:21 AM 27.50 -10.48 66.20 28.40 14.0 x 3.13 S 2.24 S 3.58 S x x Other     x x x x x 0.02 Unknown
11/28/2020 02:22 AM 27.50 -10.48 66.20 28.40 14.0 x 2.46 SW 1.79 S 3.58 S x x Other     x x x x x 0.02 Unknown
11/28/2020 02:23 AM 27.50 -10.48 66.20 28.40 14.0 x 2.01 S 1.79 SW 3.58 S x x Other     x x x x x 0.02 Unknown
11/28/2020 02:25 AM 27.50 -10.30 66.20 28.40 14.0 x 2.46 S 2.91 SW 3.58 S x x Other     x x x x x 0.02 Unknown
11/28/2020 02:26 AM 27.50 -10.48 66.20 28.40 14.0 x 2.68 SW 2.24 SW 3.58 S x x Other     x x x x x 0.02 Unknown
11/28/2020 02:27 AM 27.50 -10.48 66.20 28.40 14.0 x 2.46 SW 2.68 SW 3.58 S x x Other     x x x x x 0.02 Unknown
11/28/2020 02:28 AM 27.50 -10.48 66.20 28.40 14.0 x 2.46 SW 2.91 SW 3.58 S x x Other     x x x x x 0.02 Unknown
11/28/2020 02:29 AM 27.50 -10.48 66.20 28.40 14.0 x 2.46 SW 2.24 SW 3.58 SW x x Other     x x x x x 0.02 Unknown
11/28/2020 02:30 AM 27.32 -10.66 66.20 28.40 14.0 x 2.24 SW 1.79 SW 3.58 SW x x Other     x x x x x 0.02 Unknown
11/28/2020 02:31 AM 27.14 -10.66 66.20 28.40 14.0 x 2.01 SW 1.79 SW 3.58 SW x x Other     x x x x x 0.02 Unknown
11/28/2020 02:32 AM 27.14 -10.66 66.20 28.40 14.0 x 2.01 SW 2.68 SW 3.58 SW x x Other     x x x x x 0.02 Unknown
11/28/2020 02:33 AM 27.14 -10.66 66.20 28.40 14.0 x 2.46 SW 2.24 SW 3.58 SW x x Other     x x x x x 0.02 Unknown
11/28/2020 02:34 AM 26.96 -11.02 66.20 28.40 14.0 x 2.68 SW 2.46 SW 3.58 SW x x Other     x x x x x 0.02 Unknown
11/28/2020 02:35 AM 26.96 -11.02 66.20 28.40 14.0 x 2.68 SW 2.46 W 3.36 SW x x Other     x x x x x 0.02 Unknown
11/28/2020 02:36 AM 26.96 -11.02 66.20 28.40 14.0 x 2.46 W 2.01 W 3.36 SW x x Other     x x x x x 0.02 Unknown
11/28/2020 02:37 AM 26.78 -11.20 66.20 28.40 14.0 x 2.24 W 2.01 W 3.36 SW x x Other     x x x x x 0.02 Unknown
11/28/2020 02:38 AM 26.78 -11.20 66.20 28.40 14.0 x 2.01 W 1.34 W 3.36 SW x x Other     x x x x x 0.02 Unknown
11/28/2020 02:39 AM 26.96 -11.02 66.20 28.40 14.0 x 1.79 NW 1.79 W 3.36 SW x x Other     x x x x x 0.02 Unknown
11/28/2020 02:40 AM 26.96 -10.48 66.20 28.40 15.0 x 1.79 W 1.79 W 3.36 SW x x Other     x x x x x 0.02 Unknown
11/28/2020 02:41 AM 26.96 -10.48 66.20 28.40 15.0 x 1.79 W 1.79 W 3.36 SW x x Other     x x x x x 0.02 Unknown
11/28/2020 02:42 AM 27.14 -10.30 66.20 28.40 15.0 x 1.79 W 1.57 W 3.36 SW x x Other     x x x x x 0.02 Unknown
11/28/2020 02:43 AM 26.96 -10.48 66.20 28.40 15.0 x 1.57 W 0.89 W 3.36 SW x x Other     x x x x x 0.02 Unknown
11/28/2020 02:44 AM 26.96 -10.48 66.20 28.40 15.0 x 1.34 W 0.89 NW 3.13 SW x x Other     x x x x x 0.02 Unknown
11/28/2020 02:45 AM 26.96 -10.48 66.20 28.40 15.0 x 1.34 NW 1.79 NW 3.13 W x x Other     x x x x x 0.02 Unknown
11/28/2020 02:46 AM 26.96 -10.48 66.20 28.40 15.0 x 1.34 NW 1.34 NW 3.13 W x x Other     x x x x x 0.02 Unknown
11/28/2020 02:47 AM 26.96 -10.48 66.20 28.40 15.0 x 1.57 NW 0.45 N 2.24 W x x Other     x x x x x 0.02 Unknown
11/28/2020 02:48 AM 26.96 -10.30 66.20 28.40 15.0 x 0.67 NW 0.00 NW 2.24 W x x Other     x x x x x 0.02 Unknown
11/28/2020 02:49 AM 26.96 -10.30 66.20 28.40 15.0 x 0.00 NW 0.00 NW 2.24 W x x Other     x x x x x 0.02 Unknown
11/28/2020 02:50 AM 26.96 -10.30 66.20 28.40 15.0 x 0.00 NW 0.00 NW 2.24 W x x Other     x x x x x 0.02 Unknown
11/28/2020 02:51 AM 26.96 -10.30 66.20 28.40 15.0 x 0.22 NW 0.00 S 2.24 NW x x Other     x x x x x 0.02 Unknown
11/28/2020 02:52 AM 26.96 -10.48 66.20 28.40 15.0 x 0.22 S 0.00 SW 2.24 NW x x Other     x x x x x 0.02 Unknown
11/28/2020 02:53 AM 26.96 -10.48 66.20 28.40 15.0 x 0.00 S 0.00 W 2.24 NW x x Other     x x x x x 0.02 Unknown
11/28/2020 02:54 AM 26.78 -10.66 66.20 28.40 15.0 x 0.00 W 0.00 N 2.24 NW x x Other     x x x x x 0.02 Unknown
11/28/2020 02:55 AM 26.78 -10.66 66.20 28.40 15.0 x 0.00 N 0.00 W 1.79 N x x Other     x x x x x 0.02 Unknown
11/28/2020 02:56 AM 26.78 -10.66 66.20 28.40 15.0 x 0.22 W 0.45 NW 1.79 NW x x Other     x x x x x 0.02 Unknown
11/28/2020 02:57 AM 26.78 -10.66 66.20 28.40 15.0 x 0.67 W 1.12 NW 2.01 NW x x Other     x x x x x 0.02 Unknown
11/28/2020 02:58 AM 26.78 -10.66 66.20 28.40 15.0 x 1.12 NW 0.89 W 2.01 NW x x Other     x x x x x 0.02 Unknown
11/28/2020 02:59 AM 26.96 -10.48 66.20 28.40 15.0 x 0.89 W 1.79 W 2.01 NW x x Other     x x x x x 0.02 Unknown
11/28/2020 03:00 AM 26.96 -10.48 66.20 28.40 15.0 x 1.12 W 1.57 W 2.01 NW x x Other     x x x x x 0.02 Unknown
11/28/2020 03:01 AM 26.96 -10.48 66.20 28.40 15.0 x 1.34 W 1.34 W 2.01 NW x x Other     x x x x x 0.02 Unknown
11/28/2020 03:02 AM 26.96 -10.48 66.20 28.40 15.0 x 1.34 W 1.34 W 2.01 NW x x Other     x x x x x 0.02 Unknown
11/28/2020 03:03 AM 26.96 -10.30 66.20 28.40 15.0 x 1.12 W 0.22 W 2.01 NW x x Other     x x x x x 0.02 Unknown
11/28/2020 03:04 AM 26.96 -10.48 66.20 28.40 15.0 x 1.12 W 1.57 SW 2.01 NW x x Other     x x x x x 0.02 Unknown
11/28/2020 03:05 AM 26.96 -10.48 66.20 28.40 15.0 x 1.34 W 1.12 SW 2.46 S x x Other     x x x x x 0.02 Unknown
11/28/2020 03:06 AM 26.78 -10.66 66.20 28.40 15.0 x 1.12 SW 0.89 SW 2.46 S x x Other     x x x x x 0.02 Unknown
11/28/2020 03:07 AM 26.78 -10.66 66.20 28.40 15.0 x 0.89 SW 1.12 SW 2.46 S x x Other     x x x x x 0.02 Unknown
11/28/2020 03:08 AM 26.78 -10.84 66.20 28.40 15.0 x 0.89 S 1.57 S 2.46 S x x Other     x x x x x 0.02 Unknown
11/28/2020 03:09 AM 26.60 -10.84 66.20 28.40 15.0 x 1.12 S 0.22 x 2.46 S x x Other     x x x x x 0.02 Unknown
11/28/2020 03:10 AM 26.60 -10.84 66.20 28.40 15.0 x 1.12 S 1.79 S 2.46 S x x Other     x x x x x 0.02 Unknown
11/28/2020 03:11 AM 26.42 -10.84 66.20 28.40 15.0 x 1.57 S 1.79 S 2.46 S x x Other     x x x x x 0.02 Unknown
11/28/2020 03:12 AM 26.42 -11.02 66.20 28.40 15.0 x 1.79 S 2.01 S 2.46 S x x Other     x x x x x 0.02 Unknown
11/28/2020 03:13 AM 26.42 -11.02 66.20 28.40 15.0 x 1.79 S 2.46 S 3.36 S x x Other     x x x x x 0.02 Unknown
11/28/2020 03:14 AM 26.24 -11.20 66.20 28.40 15.0 x 2.24 S 1.57 SW 3.36 S x x Other     x x x x x 0.02 Unknown
11/28/2020 03:15 AM 26.24 -11.20 66.20 28.40 15.0 x 1.79 S 0.67 SW 3.36 S x x Other     x x x x x 0.02 Unknown
11/28/2020 03:16 AM 26.24 -11.20 66.20 28.40 15.0 x 1.12 W 0.00 W 3.36 S x x Other     x x x x x 0.02 Unknown
11/28/2020 03:17 AM 26.24 -11.20 66.20 28.40 15.0 x 0.22 W 0.00 W 3.36 S x x Other     x x x x x 0.02 Unknown
11/28/2020 03:18 AM 26.24 -11.20 66.20 28.40 15.0 x 0.22 W 1.34 S 3.36 S x x Other     x x x x x 0.02 Unknown
11/28/2020 03:19 AM 26.24 -11.20 66.20 28.40 15.0 x 1.12 S 3.36 S 3.36 S x x Other     x x x x x 0.02 Unknown
11/28/2020 03:20 AM 26.42 -11.02 66.20 28.40 15.0 x 2.68 S 2.91 S 3.80 S x x Other     x x x x x 0.02 Unknown
11/28/2020 03:21 AM 26.42 -11.02 66.20 28.40 15.0 x 2.68 S 2.46 S 3.80 S x x Other     x x x x x 0.02 Unknown
11/28/2020 03:22 AM 26.42 -11.02 66.20 28.40 15.0 x 2.24 S 1.79 S 3.80 S x x Other     x x x x x 0.02 Unknown
11/28/2020 03:23 AM 26.42 -11.02 66.20 28.40 15.0 x 2.46 S 2.91 S 4.03 S x x Other     x x x x x 0.02 Unknown
11/28/2020 03:24 AM 26.42 -11.02 66.20 28.40 15.0 x 2.91 S 3.36 SW 4.03 S x x Other     x x x x x 0.02 Unknown
11/28/2020 03:25 AM 26.24 -11.20 66.20 28.40 15.0 x 3.13 SW 2.24 SW 4.03 S x x Other     x x x x x 0.02 Unknown
11/28/2020 03:26 AM 26.24 -11.20 66.20 28.40 15.0 x 3.36 SW 3.13 SW 4.03 S x x Other     x x x x x 0.02 Unknown
11/28/2020 03:27 AM 26.06 -11.38 66.20 28.40 15.0 x 3.80 SW 4.47 SW 4.47 SW x x Other     x x x x x 0.02 Unknown
11/28/2020 03:28 AM 25.88 -11.56 66.20 28.40 15.0 x 4.25 SW 4.03 SW 4.47 SW x x Other     x x x x x 0.02 Unknown
11/28/2020 03:29 AM 25.70 -11.56 66.20 28.40 15.0 x 4.03 SW 3.80 SW 4.47 SW x x Other     x x x x x 0.02 Unknown
11/28/2020 03:30 AM 25.52 -11.74 66.20 28.40 15.0 x 3.80 SW 4.25 SW 4.47 SW x x Other     x x x x x 0.02 Unknown
11/28/2020 03:32 AM 25.16 -12.28 66.20 28.40 15.0 x 4.47 SW 4.47 SW 4.92 SW x x Other     x x x x x 0.02 Unknown
11/28/2020 03:33 AM 25.16 -12.28 66.20 28.40 15.0 x 4.25 SW 3.80 SW 4.92 SW x x Other     x x x x x 0.02 Unknown
11/28/2020 03:34 AM 24.98 -12.28 66.20 28.40 15.0 x 4.03 SW 3.58 SW 4.92 SW x x Other     x x x x x 0.02 Unknown
11/28/2020 03:35 AM 25.16 -12.28 66.20 28.40 15.0 x 3.58 SW 3.36 SW 4.92 SW x x Other     x x x x x 0.02 Unknown
11/28/2020 03:36 AM 25.16 -12.28 66.20 28.40 15.0 x 3.13 SW 2.68 SW 4.92 SW x x Other     x x x x x 0.02 Unknown
11/28/2020 03:37 AM 25.16 -12.28 66.20 28.40 15.0 x 3.13 SW 2.91 S 4.92 SW x x Other     x x x x x 0.02 Unknown
11/28/2020 03:38 AM 25.16 -12.10 66.20 28.40 15.0 x 2.91 SW 2.91 SW 4.92 SW x x Other     x x x x x 0.02 Unknown
11/28/2020 03:39 AM 25.34 -12.10 66.20 28.40 15.0 x 2.68 SW 2.46 SW 4.92 SW x x Other     x x x x x 0.02 Unknown
11/28/2020 03:40 AM 25.16 -12.10 66.20 28.40 15.0 x 2.46 SW 2.46 SW 4.92 SW x x Other     x x x x x 0.02 Unknown
11/28/2020 03:41 AM 25.34 -12.10 66.20 28.40 15.0 x 2.46 SW 2.01 SW 4.92 SW x x Other     x x x x x 0.02 Unknown
11/28/2020 03:43 AM 25.34 -12.10 66.20 28.40 15.0 x 2.24 SW 2.68 W 4.03 S x x Other     x x x x x 0.02 Unknown
11/28/2020 03:44 AM 25.34 -12.10 66.20 28.40 15.0 x 2.24 W 2.24 W 3.58 SW x x Other     x x x x x 0.02 Unknown
11/28/2020 03:45 AM 25.34 -12.10 66.20 28.40 15.0 x 2.46 W 2.68 SW 3.58 SW x x Other     x x x x x 0.02 Unknown
11/28/2020 03:46 AM 25.34 -12.10 66.20 28.40 15.0 x 2.46 W 2.24 W 3.58 SW x x Other     x x x x x 0.02 Unknown
11/28/2020 03:47 AM 25.34 -12.10 66.20 28.40 15.0 x 2.24 W 2.01 W 3.58 SW x x Other     x x x x x 0.02 Unknown
11/28/2020 03:48 AM 25.34 -12.10 66.20 28.40 15.0 x 2.24 W 2.01 W 3.36 S x x Other     x x x x x 0.02 Unknown
11/28/2020 03:49 AM 25.34 -12.10 66.20 28.40 15.0 x 2.01 W 2.24 W 3.36 S x x Other     x x x x x 0.02 Unknown
11/28/2020 03:50 AM 25.34 -12.10 66.20 28.40 15.0 x 2.24 W 2.68 W 3.36 S x x Other     x x x x x 0.02 Unknown
11/28/2020 03:51 AM 25.52 -11.92 66.20 28.40 15.0 x 2.46 W 2.91 W 3.36 S x x Other     x x x x x 0.02 Unknown
11/28/2020 03:52 AM 25.52 -11.92 66.20 28.40 15.0 x 2.91 W 3.13 W 3.36 W x x Other     x x x x x 0.02 Unknown
11/28/2020 03:53 AM 25.34 -12.10 66.20 28.40 15.0 x 2.91 W 2.91 W 3.36 W x x Other     x x x x x 0.02 Unknown
11/28/2020 03:54 AM 25.34 -12.10 66.20 28.40 15.0 x 2.68 W 2.68 W 3.36 W x x Other     x x x x x 0.02 Unknown
11/28/2020 03:55 AM 25.34 -12.10 66.20 28.40 15.0 x 2.68 W 2.91 NW 3.36 W x x Other     x x x x x 0.02 Unknown
11/28/2020 03:56 AM 25.16 -12.10 66.20 28.40 15.0 x 2.68 W 2.68 NW 3.36 W x x Other     x x x x x 0.02 Unknown
11/28/2020 03:57 AM 25.34 -12.10 66.20 28.40 15.0 x 2.46 NW 1.57 NW 3.36 W x x Other     x x x x x 0.02 Unknown
11/28/2020 03:58 AM 25.52 -11.92 66.20 28.40 15.0 x 2.24 NW 1.57 NW 3.36 W x x Other     x x x x x 0.02 Unknown
11/28/2020 03:59 AM 25.52 -11.92 66.20 28.40 15.0 x 2.24 NW 3.13 W 3.36 W x x Other     x x x x x 0.02 Unknown
11/28/2020 04:00 AM 25.52 -11.74 66.20 28.40 15.0 x 2.91 W 4.03 W 4.03 W x x Other     x x x x x 0.02 Unknown
11/28/2020 04:01 AM 25.52 -11.92 66.20 28.40 15.0 x 3.58 W 4.03 W 4.25 W x x Other     x x x x x 0.02 Unknown
11/28/2020 04:02 AM 25.34 -12.10 66.20 28.40 15.0 x 4.03 W 3.58 NW 4.25 W x x Other     x x x x x 0.02 Unknown
11/28/2020 04:03 AM 24.98 -12.28 66.20 28.40 15.0 x 3.80 W 3.58 NW 4.25 W x x Other     x x x x x 0.02 Unknown
11/28/2020 04:04 AM 24.98 -12.46 66.20 28.40 15.0 x 3.58 NW 3.58 NW 4.25 W x x Other     x x x x x 0.02 Unknown
11/28/2020 04:05 AM 24.80 -12.46 66.20 28.40 15.0 x 3.36 NW 2.91 NW 4.25 W x x Other     x x x x x 0.02 Unknown
11/28/2020 04:06 AM 24.80 -12.64 66.20 28.40 15.0 x 3.13 NW 3.13 NW 4.25 W x x Other     x x x x x 0.02 Unknown
11/28/2020 04:07 AM 24.80 -12.46 66.20 28.40 15.0 x 2.91 NW 3.13 NW 4.25 W x x Other     x x x x x 0.02 Unknown
11/28/2020 04:08 AM 24.98 -12.46 66.20 28.40 15.0 x 2.68 NW 2.46 NW 4.25 W x x Other     x x x x x 0.02 Unknown
11/28/2020 04:09 AM 24.98 -11.92 66.20 28.40 15.0 x 2.68 NW 2.46 NW 4.25 W x x Other     x x x x x 0.02 Unknown
11/28/2020 04:10 AM 24.98 -11.92 66.20 28.40 15.0 x 2.46 NW 2.24 NW 4.25 W x x Other     x x x x x 0.02 Unknown
11/28/2020 04:11 AM 24.98 -11.92 66.20 28.40 15.0 x 2.46 NW 2.24 NW 4.03 NW x x Other     x x x x x 0.02 Unknown
11/28/2020 04:12 AM 24.98 -11.92 66.20 28.40 15.0 x 2.46 NW 2.01 NW 3.80 NW x x Other     x x x x x 0.02 Unknown
11/28/2020 04:13 AM 24.98 -11.74 66.20 28.40 15.0 x 2.24 NW 1.79 NW 3.80 NW x x Other     x x x x x 0.02 Unknown
11/28/2020 04:14 AM 24.98 -11.38 66.20 28.40 15.0 x 2.01 NW 1.34 N 3.58 NW x x Other     x x x x x 0.02 Unknown
11/28/2020 04:15 AM 24.80 -11.56 66.20 28.40 15.0 x 1.57 N 1.34 N 3.36 NW x x Other     x x x x x 0.02 Unknown
11/28/2020 04:16 AM 24.80 -11.38 66.20 28.40 15.0 x 1.57 N 1.79 N 3.13 NW x x Other     x x x x x 0.02 Unknown
11/28/2020 04:17 AM 24.80 -11.74 66.20 28.40 15.0 x 1.79 N 1.79 N 3.13 NW x x Other     x x x x x 0.02 Unknown
11/28/2020 04:18 AM 24.80 -11.74 66.20 28.40 15.0 x 1.79 N 1.79 N 3.13 NW x x Other     x x x x x 0.02 Unknown
11/28/2020 04:19 AM 24.62 -11.74 66.20 28.40 15.0 x 1.79 N 1.57 N 3.13 NW x x Other     x x x x x 0.02 Unknown
11/28/2020 04:20 AM 24.80 -11.74 66.20 28.40 15.0 x 1.79 N 2.01 N 3.13 NW x x Other     x x x x x 0.02 Unknown
11/28/2020 04:21 AM 24.80 -11.56 66.20 28.40 15.0 x 1.79 N 0.22 NE 3.13 NW x x Other     x x x x x 0.02 Unknown
11/28/2020 04:22 AM 24.98 -11.02 66.20 28.40 16.0 x 1.12 N 1.34 N 2.46 N x x Other     x x x x x 0.02 Unknown
11/28/2020 04:23 AM 25.16 -10.84 66.20 28.40 16.0 x 1.12 N 1.57 N 2.46 N x x Other     x x x x x 0.02 Unknown
11/28/2020 04:24 AM 25.16 -10.66 66.20 28.40 16.0 x 1.34 N 0.00 NE 2.46 N x x Other     x x x x x 0.02 Unknown
11/28/2020 04:26 AM 25.52 -10.48 66.20 28.40 16.0 x 0.67 N 0.45 NE 2.46 N x x Other     x x x x x 0.02 Unknown
11/28/2020 04:27 AM 25.52 -10.30 66.20 28.40 16.0 x 1.12 NE 1.34 NE 2.46 N x x Other     x x x x x 0.02 Unknown
11/28/2020 04:28 AM 25.52 -9.94 66.20 28.40 16.0 x 1.12 NE 1.34 N 2.46 N x x Other     x x x x x 0.02 Unknown
11/28/2020 04:29 AM 25.70 -9.76 66.20 28.40 16.0 x 1.34 NE 1.34 N 2.46 N x x Other     x x x x x 0.02 Unknown
11/28/2020 04:30 AM 26.06 -9.40 66.20 28.40 16.0 x 1.12 N 0.00 N 2.46 N x x Other     x x x x x 0.02 Unknown
11/28/2020 04:31 AM 26.06 -9.22 66.20 28.40 16.0 x 0.45 N 0.89 SE 2.01 NE x x Other     x x x x x 0.02 Unknown
11/28/2020 04:32 AM 26.42 -8.68 66.20 28.40 17.0 x 0.67 SE 0.00 S 2.01 NE x x Other     x x x x x 0.02 Unknown
11/28/2020 04:33 AM 26.42 -8.68 66.20 28.40 17.0 x 0.67 S 0.00 S 2.01 NE x x Other     x x x x x 0.02 Unknown
11/28/2020 04:34 AM 26.60 -8.32 66.20 28.40 17.0 x 0.00 S 0.00 SW 1.79 SW x x Other     x x x x x 0.02 Unknown
11/28/2020 04:35 AM 26.60 -8.32 66.20 28.40 17.0 x 0.00 SW 0.00 SW 1.79 SW x x Other     x x x x x 0.02 Unknown
11/28/2020 04:36 AM 26.60 -8.32 66.20 28.40 17.0 x 0.22 SW 1.34 NE 1.79 SW x x Other     x x x x x 0.02 Unknown
11/28/2020 04:37 AM 26.60 -8.32 66.20 28.40 17.0 x 0.89 NE 2.01 NE 1.79 NE x x Other     x x x x x 0.02 Unknown
11/28/2020 04:38 AM 26.42 -8.50 66.20 28.40 17.0 x 1.79 NE 1.79 N 2.91 NE x x Other     x x x x x 0.02 Unknown
11/28/2020 04:39 AM 26.42 -8.68 66.20 28.40 17.0 x 1.57 N 1.12 N 2.91 NE x x Other     x x x x x 0.02 Unknown
11/28/2020 04:40 AM 26.24 -8.68 66.20 28.40 17.0 x 1.12 N 0.45 NE 2.91 NE x x Other     x x x x x 0.02 Unknown
11/28/2020 04:42 AM 26.24 -8.32 66.20 28.40 17.0 x 0.00 E 0.00 NE 2.91 NE x x Other     x x x x x 0.02 Unknown
11/28/2020 04:43 AM 26.24 -8.32 66.20 28.40 17.0 x 0.00 NE 0.00 N 2.91 NE x x Other     x x x x x 0.02 Unknown
11/28/2020 04:44 AM 26.24 -8.32 66.20 28.40 17.0 x 0.00 N 0.00 NE 2.91 NE x x Other     x x x x x 0.02 Unknown
11/28/2020 04:45 AM 26.24 -8.32 66.20 28.40 17.0 x 0.00 NE 0.00 NE 2.91 NE x x Other     x x x x x 0.02 Unknown
11/28/2020 04:46 AM 26.24 -8.32 66.20 28.40 17.0 x 0.22 N 0.89 N 2.91 NE x x Other     x x x x x 0.02 Unknown
11/28/2020 04:47 AM 26.24 -8.32 66.20 28.40 17.0 x 0.67 N 1.12 NE 2.91 NE x x Other     x x x x x 0.02 Unknown
11/28/2020 04:48 AM 26.24 -8.32 66.20 28.40 17.0 x 0.45 N 0.00 NE 1.57 N x x Other     x x x x x 0.02 Unknown
11/28/2020 04:50 AM 26.24 -8.14 66.20 28.40 17.0 x 0.45 NE 0.00 S 2.46 S x x Other     x x x x x 0.02 Unknown
11/28/2020 04:52 AM 26.24 -8.14 66.20 28.40 17.0 x 0.22 S 0.00 S 2.46 S x x Other     x x x x x 0.02 Unknown
11/28/2020 04:53 AM 26.24 -8.32 66.20 28.40 17.0 x 0.22 S 0.89 N 2.46 S x x Other     x x x x x 0.02 Unknown
11/28/2020 04:54 AM 26.24 -8.32 66.20 28.40 17.0 x 0.89 N 1.79 N 2.46 S x x Other     x x x x x 0.02 Unknown
11/28/2020 04:55 AM 26.06 -8.86 66.20 28.40 17.0 x 1.79 N 1.79 N 2.46 S x x Other     x x x x x 0.02 Unknown
11/28/2020 04:56 AM 26.06 -8.86 66.20 28.40 17.0 x 1.79 N 0.89 N 2.46 S x x Other     x x x x x 0.02 Unknown
11/28/2020 04:57 AM 26.06 -8.86 66.20 28.40 17.0 x 1.34 N 1.34 N 2.46 S x x Other     x x x x x 0.02 Unknown
11/28/2020 04:58 AM 26.06 -8.86 66.20 28.40 17.0 x 0.89 N 0.00 N 2.46 S x x Other     x x x x x 0.02 Unknown
11/28/2020 04:59 AM 26.06 -8.86 66.20 28.40 17.0 x 0.22 N 0.00 N 2.46 S x x Other     x x x x x 0.02 Unknown
11/28/2020 05:00 AM 26.06 -8.68 66.20 28.40 17.0 x 0.00 N 0.00 N 2.24 N x x Other     x x x x x 0.02 Unknown
11/28/2020 05:01 AM 26.24 -8.68 66.20 28.40 17.0 x 0.00 N 0.00 N 2.24 N x x Other     x x x x x 0.02 Unknown
11/28/2020 05:02 AM 26.06 -8.86 66.20 28.40 17.0 x 0.00 N 0.00 N 2.24 N x x Other     x x x x x 0.02 Unknown
11/28/2020 05:03 AM 26.06 -8.86 66.20 28.40 17.0 x 0.00 N 0.00 N 2.24 N x x Other     x x x x x 0.02 Unknown
11/28/2020 05:04 AM 26.06 -8.86 66.20 28.40 17.0 x 0.22 N 0.89 NW 2.24 N x x Other     x x x x x 0.02 Unknown
11/28/2020 05:05 AM 26.06 -8.86 66.20 28.40 17.0 x 0.67 N 1.79 N 2.01 N x x Other     x x x x x 0.02 Unknown
11/28/2020 05:06 AM 26.24 -8.68 66.20 28.40 17.0 x 1.79 N 1.79 N 2.91 N x x Other     x x x x x 0.02 Unknown
11/28/2020 05:07 AM 26.24 -8.68 66.20 28.40 17.0 x 1.79 N 1.34 N 2.91 N x x Other     x x x x x 0.02 Unknown
11/28/2020 05:08 AM 26.24 -8.68 66.20 28.40 17.0 x 1.34 NW 1.34 N 2.91 N x x Other     x x x x x 0.02 Unknown
11/28/2020 05:09 AM 26.24 -8.68 66.20 28.40 17.0 x 0.89 N 0.00 NW 2.91 N x x Other     x x x x x 0.02 Unknown
11/28/2020 05:10 AM 26.24 -8.68 66.20 28.40 17.0 x 0.22 NW 0.00 NW 2.91 N x x Other     x x x x x 0.02 Unknown
11/28/2020 05:11 AM 26.24 -8.86 66.20 28.40 17.0 x 0.00 N 0.00 NW 2.91 N x x Other     x x x x x 0.02 Unknown
11/28/2020 05:12 AM 26.24 -8.86 66.20 28.40 17.0 x 0.45 N 2.01 S 2.91 N x x Other     x x x x x 0.02 Unknown
11/28/2020 05:13 AM 26.24 -9.22 66.20 28.40 16.0 x 1.34 S 1.12 S 2.91 N x x Other     x x x x x 0.02 Unknown
11/28/2020 05:14 AM 26.24 -9.22 66.20 28.40 16.0 x 1.34 S 1.57 S 2.91 N x x Other     x x x x x 0.02 Unknown
11/28/2020 05:15 AM 26.42 -9.04 66.20 28.40 16.0 x 1.12 S 0.00 NW 2.91 N Yes x Other     x x x x x 0.02 Unknown
11/28/2020 05:16 AM 26.42 -9.04 66.20 28.40 16.0 x 0.45 NW 0.00 N 2.46 S x x Other     x x x x x 0.02 Unknown
11/28/2020 05:17 AM 26.42 -9.04 66.20 28.40 16.0 x 0.00 N 0.00 N 2.46 S x x Other     x x x x x 0.02 Unknown
11/28/2020 05:18 AM 26.42 -9.04 66.20 28.40 16.0 x 0.00 N 0.00 N 2.46 S x x Other     x x x x x 0.02 Unknown
11/28/2020 05:19 AM 26.42 -9.04 66.20 28.40 16.0 x 0.00 N 0.00 N 2.46 S x x Other     x x x x x 0.02 Unknown
11/28/2020 05:20 AM 26.42 -9.04 66.20 28.40 16.0 x 0.00 N 0.00 N 2.46 S x x Other     x x x x x 0.02 Unknown
11/28/2020 05:21 AM 26.42 -9.04 66.20 28.40 16.0 x 0.00 N 0.00 N 2.46 S x x Other     x x x x x 0.02 Unknown
11/28/2020 05:22 AM 26.42 -8.86 66.20 28.40 16.0 x 0.00 N 0.45 SE 2.24 S x x Other     x x x x x 0.02 Unknown
11/28/2020 05:23 AM 26.42 -8.86 66.20 28.40 16.0 x 0.67 N 0.00 SE 4.03 SE x x Other     x x x x x 0.02 Unknown
11/28/2020 05:24 AM 26.60 -9.40 66.20 28.40 16.0 x 0.45 SE 0.00 NW 4.03 SE x x Other     x x x x x 0.02 Unknown
11/28/2020 05:25 AM 26.60 -9.22 66.20 28.40 16.0 x 0.00 N 0.00 N 4.03 SE x x Other     x x x x x 0.02 Unknown
11/28/2020 05:26 AM 26.60 -9.22 66.20 28.40 16.0 x 0.00 N 0.00 N 4.03 SE x x Other     x x x x x 0.02 Unknown
11/28/2020 05:27 AM 26.60 -9.22 66.20 28.40 16.0 x 0.00 N 0.00 NW 4.03 SE x x Other     x x x x x 0.02 Unknown
11/28/2020 05:29 AM 26.60 -9.40 66.20 28.40 16.0 x 0.00 N 1.57 W 4.03 SE x x Other     x x x x x 0.02 Unknown
11/28/2020 05:30 AM 26.60 -9.76 66.20 28.40 16.0 x 0.22 S 0.22 S x SE x x Other     x x x x x 0.02 Unknown
11/28/2020 05:31 AM 26.60 -9.76 66.20 28.40 15.0 x 0.45 S 0.89 W 4.03 SE x x Other     x x x x x 0.02 Unknown
11/28/2020 05:32 AM 26.60 -9.76 66.20 28.40 15.0 x 0.67 S 0.45 W 2.91 S x x Other     x x x x x 0.02 Unknown
11/28/2020 05:33 AM 26.60 -9.76 66.20 28.40 15.0 x 0.67 W 1.12 NW 2.24 NW x x Other     x x x x x 0.02 Unknown
11/28/2020 05:34 AM 26.78 -9.58 66.20 28.40 15.0 x 0.67 N 0.22 N 2.24 NW x x Other     x x x x x 0.02 Unknown
11/28/2020 05:35 AM 26.78 -9.58 66.20 28.40 15.0 x 0.45 N 0.00 S 2.24 NW x x Other     x x x x x 0.02 Unknown
11/28/2020 05:36 AM 26.78 -10.12 66.20 28.40 15.0 x 0.67 W 0.89 W 2.24 NW x x Other     x x x x x 0.02 Unknown
11/28/2020 05:37 AM 26.78 -9.94 66.20 28.40 15.0 x 0.67 NW 0.00 NW 2.24 NW x x Other     x x x x x 0.02 Unknown
11/28/2020 05:38 AM 26.78 -10.12 66.20 28.40 15.0 x 0.89 NW 1.34 NW 2.24 NW x x Other     x x x x x 0.02 Unknown
11/28/2020 05:39 AM 26.96 -9.94 66.20 28.40 15.0 x 1.34 NW 1.57 N 2.24 NW x x Other     x x x x x 0.02 Unknown
11/28/2020 05:40 AM 27.14 -10.30 66.20 28.40 15.0 x 1.57 N 1.34 N 2.24 NW x x Other     x x x x x 0.02 Unknown
11/28/2020 05:41 AM 27.14 -10.30 66.20 28.40 15.0 x 1.57 N 1.12 N 2.24 NW x x Other     x x x x x 0.02 Unknown
11/28/2020 05:42 AM 27.14 -10.30 66.20 28.40 15.0 x 0.89 N 0.00 N 2.24 NW x x Other     x x x x x 0.02 Unknown
11/28/2020 05:43 AM 27.14 -10.66 66.20 28.40 14.0 x 0.00 N 0.00 N 2.24 NW x x Other     x x x x x 0.02 Unknown
11/28/2020 05:44 AM 27.14 -10.66 66.20 28.40 14.0 x 0.00 N 0.00 N 2.24 NW x x Other     x x x x x 0.02 Unknown
11/28/2020 05:45 AM 26.96 -10.84 66.20 28.40 14.0 x 0.00 N 0.00 SW 2.24 NW x x Other     x x x x x 0.02 Unknown
11/28/2020 05:46 AM 27.14 -10.66 66.20 28.40 14.0 x 0.00 N 0.00 W 2.24 NW x x Other     x x x x x 0.02 Unknown
11/28/2020 05:47 AM 27.14 -10.66 66.20 28.40 14.0 x 0.00 W 0.00 W 2.24 NW x x Other     x x x x x 0.02 Unknown
11/28/2020 05:49 AM 26.96 -11.02 66.20 28.40 14.0 x 0.89 SW 1.79 SW 1.79 N x x Other     x x x x x 0.02 Unknown
11/28/2020 05:50 AM 26.96 -11.02 66.20 28.40 14.0 x 1.34 SW 1.57 SW 1.79 SW x x Other     x x x x x 0.02 Unknown
11/28/2020 05:51 AM 26.96 -11.02 66.20 28.40 14.0 x 1.57 SW 1.57 SW 2.24 S x x Other     x x x x x 0.02 Unknown
11/28/2020 05:53 AM 26.78 -11.20 66.20 28.40 14.0 x 1.79 S 2.46 S 2.91 S x x Other     x x x x x 0.02 Unknown
11/28/2020 05:54 AM 26.60 -11.38 66.20 28.40 14.0 x 2.24 S 1.57 S 2.91 S x x Other     x x x x x 0.02 Unknown
11/28/2020 05:55 AM 26.60 -11.20 66.20 28.40 14.0 x 2.24 S 0.89 SE 3.58 S x x Other     x x x x x 0.02 Unknown
11/28/2020 05:56 AM 26.60 -11.38 66.20 28.40 14.0 x 1.34 S 0.22 W 3.58 S x x Other     x x x x x 0.02 Unknown
11/28/2020 05:57 AM 26.60 -11.38 66.20 28.40 14.0 x 0.45 W 0.45 W 3.58 S x x Other     x x x x x 0.02 Unknown
11/28/2020 05:58 AM 26.60 -11.20 66.20 28.40 14.0 x 0.22 W 0.45 W 3.58 S x x Other     x x x x x 0.02 Unknown
11/28/2020 05:59 AM 26.60 -11.20 66.20 28.40 14.0 x 0.67 SW 1.12 SW 3.58 S x x Other     x x x x x 0.02 Unknown
11/28/2020 06:00 AM 26.60 -11.38 66.20 28.40 14.0 x 0.89 SW 1.34 SW 3.58 S x x Other     x x x x x 0.02 Unknown
11/28/2020 06:01 AM 26.60 -11.38 66.20 28.40 14.0 x 1.34 SW 2.01 SW 3.58 S x x Other     x x x x x 0.02 Unknown
11/28/2020 06:02 AM 26.42 -11.56 66.20 28.40 14.0 x 1.12 SW 0.67 SW 3.58 S x x Other     x x x x x 0.02 Unknown
11/28/2020 06:03 AM 26.42 -11.02 66.20 28.40 15.0 x 1.12 SW 1.34 SW 3.58 S x x Other     x x x x x 0.02 Unknown
11/28/2020 06:04 AM 26.24 -11.20 66.20 28.40 15.0 x 1.34 SW 1.79 SW 3.58 S x x Other     x x x x x 0.02 Unknown
11/28/2020 06:05 AM 26.06 -11.38 66.20 28.40 15.0 x 1.57 SW 1.57 SW 2.46 SW x x Other     x x x x x 0.02 Unknown
11/28/2020 06:06 AM 26.06 -11.38 66.20 28.40 15.0 x 1.79 SW 1.79 SW 2.46 SW x x Other     x x x x x 0.02 Unknown
11/28/2020 06:07 AM 25.88 -11.38 66.20 28.40 15.0 x 1.57 SW 1.34 SW 2.46 SW x x Other     x x x x x 0.02 Unknown
11/28/2020 06:08 AM 25.88 -11.38 66.20 28.40 15.0 x 1.57 SW 2.01 S 2.46 SW x x Other     x x x x x 0.02 Unknown
11/28/2020 06:09 AM 25.88 -11.56 66.20 28.40 15.0 x 1.79 SW 1.34 SW 2.46 SW x x Other     x x x x x 0.02 Unknown
11/28/2020 06:10 AM 25.88 -11.56 66.20 28.40 15.0 x 1.57 SW 2.01 SW 2.46 SW x x Other     x x x x x 0.02 Unknown
11/28/2020 06:11 AM 25.88 -11.56 66.20 28.40 15.0 x 1.79 SW 2.01 SW 3.13 SW x x Other     x x x x x 0.02 Unknown
11/28/2020 06:12 AM 25.70 -11.20 66.20 28.40 15.0 x 2.46 SW 2.46 SW 3.13 SW x x Other     x x x x x 0.02 Unknown
11/28/2020 06:13 AM 25.52 -11.38 66.20 28.40 15.0 x 2.24 SW 2.01 SW 3.13 SW x x Other     x x x x x 0.02 Unknown
11/28/2020 06:14 AM 25.52 -11.20 66.20 28.40 15.0 x 1.79 SW 1.79 SW 3.13 SW x x Other     x x x x x 0.02 Unknown
11/28/2020 06:15 AM 25.34 -11.38 66.20 28.40 15.0 x 1.79 SW 1.57 SW 3.13 SW x x Other     x x x x x 0.02 Unknown
11/28/2020 06:16 AM 25.34 -11.56 66.20 28.40 15.0 x 1.57 SW 1.79 S 3.13 SW x x Other     x x x x x 0.02 Unknown
11/28/2020 06:17 AM 25.34 -11.38 66.20 28.40 15.0 x 1.79 S 2.24 S 3.36 S x x Other     x x x x x 0.02 Unknown
11/28/2020 06:18 AM 25.34 -11.38 66.20 28.40 15.0 x 2.68 S 3.58 S 5.82 SW x x Other     x x x x x 0.02 Unknown
11/28/2020 06:19 AM 25.34 -11.02 66.20 28.40 15.0 x 3.13 S 3.36 SE 5.82 SW x x Other     x x x x x 0.02 Unknown
11/28/2020 06:20 AM 25.34 -11.02 66.20 28.40 15.0 x 3.80 S 3.36 S 6.49 S x x Other     x x x x x 0.02 Unknown
11/28/2020 06:21 AM 25.34 -11.20 66.20 28.40 15.0 x 4.25 S 6.04 S 6.49 S x x Other     x x x x x 0.02 Unknown
11/28/2020 06:22 AM 25.16 -11.20 66.20 28.40 15.0 x 4.25 S 3.58 S 6.49 S x x Other     x x x x x 0.02 Unknown
11/28/2020 06:23 AM 25.16 -11.20 66.20 28.40 15.0 x 4.03 S 3.58 S 6.49 S x x Other     x x x x x 0.02 Unknown
11/28/2020 06:24 AM 25.16 -11.20 66.20 28.40 15.0 x 3.36 S 3.58 S 6.49 S x x Other     x x x x x 0.02 Unknown
11/28/2020 06:26 AM 25.16 -11.20 66.20 28.40 15.0 x 2.91 S 3.36 S 6.49 S x x Other     x x x x x 0.02 Unknown
11/28/2020 06:27 AM 25.16 -11.20 66.20 28.40 15.0 x 3.13 S 4.25 S 6.49 S x x Other     x x x x x 0.02 Unknown
11/28/2020 06:28 AM 25.16 -11.20 66.20 28.40 15.0 x 3.13 S 2.68 S 6.49 S x x Other     x x x x x 0.02 Unknown
11/28/2020 06:29 AM 25.16 -11.20 66.20 28.40 15.0 x 2.68 S 2.46 S 6.49 S x x Other     x x x x x 0.02 Unknown
11/28/2020 06:30 AM 25.16 -11.20 66.20 28.40 15.0 x 2.24 S 1.12 SW 6.04 S x x Other     x x x x x 0.02 Unknown
11/28/2020 06:31 AM 25.34 -11.20 66.20 28.40 15.0 x 1.79 SW 1.57 S 5.82 S x x Other     x x x x x 0.02 Unknown
11/28/2020 06:32 AM 25.34 -11.20 66.20 28.40 15.0 x 1.57 S 2.91 S 4.70 S x x Other     x x x x x 0.02 Unknown
11/28/2020 06:33 AM 25.34 -11.02 66.20 28.40 15.0 x 1.57 S 3.36 SW 4.70 S x x Other     x x x x x 0.02 Unknown
11/28/2020 06:34 AM 25.52 -11.02 66.20 28.40 15.0 x 1.79 S 1.79 S 4.70 S x x Other     x x x x x 0.02 Unknown
11/28/2020 06:35 AM 25.52 -10.84 66.20 28.40 15.0 x 2.24 S 2.68 S 4.70 S x x Other     x x x x x 0.02 Unknown
11/28/2020 06:36 AM 25.52 -10.84 66.20 28.40 15.0 x 2.46 S 2.46 SW 4.25 S x x Other     x x x x x 0.02 Unknown
11/28/2020 06:37 AM 25.52 -10.84 66.20 28.40 15.0 x 2.68 SW 2.24 SW 4.03 S x x Other     x x x x x 0.02 Unknown
11/28/2020 06:38 AM 25.34 -11.02 66.20 28.40 15.0 x 2.46 SW 2.91 SW 3.80 S x x Other     x x x x x 0.02 Unknown
11/28/2020 06:39 AM 25.34 -11.02 66.20 28.40 15.0 x 2.68 SW 2.24 S 3.80 S x x Other     x x x x x 0.02 Unknown
11/28/2020 06:41 AM 25.34 -11.02 66.20 28.40 15.0 x 2.91 S 2.68 S 4.47 S x x Other     x x x x x 0.02 Unknown
11/28/2020 06:42 AM 25.52 -10.84 66.20 28.40 15.0 x 2.68 S 1.79 SW 4.47 S x x Other     x x x x x 0.02 Unknown
11/28/2020 06:43 AM 25.70 -10.84 66.20 28.40 15.0 x 2.01 S 1.79 SW 4.47 S x x Other     x x x x x 0.02 Unknown
11/28/2020 06:44 AM 25.70 -10.84 66.20 28.40 15.0 x 2.01 S 3.36 S 4.47 S x x Other     x x x x x 0.02 Unknown
11/28/2020 06:45 AM 25.70 -10.66 66.20 28.40 15.0 x 2.46 S 3.80 S 4.47 S x x Other     x x x x x 0.02 Unknown
11/28/2020 06:46 AM 25.70 -10.66 66.20 28.40 15.0 x 2.68 S 2.01 S 5.14 S x x Other     x x x x x 0.02 Unknown
11/28/2020 06:47 AM 25.88 -10.48 66.20 28.40 15.0 x 2.46 S 2.24 SW 5.14 S x x Other     x x x x x 0.02 Unknown
11/28/2020 06:48 AM 26.06 -10.30 66.20 28.40 15.0 x 2.01 S 1.79 S 5.14 S x x Other     x x x x x 0.02 Unknown
11/28/2020 06:49 AM 26.06 -10.30 66.20 28.40 15.0 x 2.01 S 2.46 S 5.14 S x x Other     x x x x x 0.02 Unknown
11/28/2020 06:50 AM 26.06 -10.30 66.20 28.40 15.0 x 2.24 S 2.46 SW 5.14 S x x Other     x x x x x 0.02 Unknown
11/28/2020 06:51 AM 26.06 -10.30 66.20 28.40 15.0 x 2.01 S 1.57 SW 5.14 S x x Other     x x x x x 0.02 Unknown
11/28/2020 06:52 AM 25.88 -10.48 66.20 28.40 15.0 x 1.34 SW 1.57 SW 5.14 S x x Other     x x x x x 0.02 Unknown
11/28/2020 06:53 AM 25.88 -10.48 66.20 28.40 15.0 x 1.34 SW 2.46 S 5.14 S x x Other     x x x x x 0.02 Unknown
11/28/2020 06:54 AM 25.88 -10.48 66.20 28.40 15.0 x 1.79 S 2.01 S 5.14 S x x Other     x x x x x 0.02 Unknown
11/28/2020 06:55 AM 25.88 -10.48 66.20 28.40 15.0 x 1.57 S 1.57 S 4.03 S x x Other     x x x x x 0.02 Unknown
11/28/2020 06:56 AM 25.88 -10.48 66.20 28.40 15.0 x 1.79 S 2.91 SW 4.03 S x x Other     x x x x x 0.03 Unknown
11/28/2020 06:58 AM 25.88 -10.48 66.20 28.40 15.0 x 2.68 SW 2.91 S 4.92 S x x Other     x x x x x 0.03 Unknown
11/28/2020 06:59 AM 25.70 -10.66 66.20 28.40 15.0 x 2.91 SW 2.91 SW 4.92 S x x Other     x x x x x 0.03 Unknown
11/28/2020 07:00 AM 25.70 -10.84 66.20 28.40 15.0 x 3.13 SW 3.13 SW 4.92 S x x Other     x x x x x 0.03 Unknown
11/28/2020 07:01 AM 25.70 -10.84 66.20 28.40 15.0 x 3.36 SW 3.80 SW 4.92 S x x Other     x x x x x 0.03 Unknown
11/28/2020 07:02 AM 25.52 -10.84 66.20 28.40 15.0 x 3.58 SW 3.58 SW 4.92 S x x Other     x x x x x 0.03 Unknown
11/28/2020 07:03 AM 25.52 -10.84 66.20 28.40 15.0 x 3.58 SW 3.80 SW 4.92 S x x Other     x x x x x 0.03 Unknown
11/28/2020 07:04 AM 25.52 -10.84 66.20 28.40 15.0 x 3.58 SW 3.80 SW 4.92 S x x Other     x x x x x 0.03 Unknown
11/28/2020 07:05 AM 25.34 -11.02 66.20 28.40 15.0 x 3.58 SW 3.80 SW 4.92 S x x Other     x x x x x 0.03 Unknown
11/28/2020 07:06 AM 25.34 -11.02 66.20 28.40 15.0 x 3.58 SW 3.80 SW 4.92 S x x Other     x x x x x 0.03 Unknown
11/28/2020 07:07 AM 25.52 -10.84 66.20 28.94 15.0 x 3.36 SW 3.13 SW 4.92 S x x Other     x x x x x 0.03 Unknown
11/28/2020 07:08 AM 25.52 -10.84 66.20 28.94 15.0 x 3.13 SW 3.13 SW 4.47 SW x x Other     x x x x x 0.03 Unknown
11/28/2020 07:09 AM 25.70 -10.84 66.20 28.94 15.0 x 3.36 SW 4.70 S 4.70 SW x x Other     x x x x x 0.04 Unknown
11/28/2020 07:11 AM 25.70 -10.84 66.20 28.94 15.0 x 3.80 SW 3.36 SW 4.70 SW x x Other     x x x x x 0.04 Unknown
11/28/2020 07:12 AM 25.70 -10.84 66.20 28.94 15.0 x 3.58 SW 3.80 SW 4.70 SW x x Other     x x x x x 0.04 Unknown
11/28/2020 07:13 AM 25.70 -10.84 66.20 28.94 15.0 x 3.36 SW 3.36 SW 4.70 SW x x Other     x x x x x 0.04 Unknown
11/28/2020 07:14 AM 25.88 -11.02 66.20 28.94 15.0 x 2.91 SW 3.13 SW 4.70 SW x x Other     x x x x x 0.04 Unknown
11/28/2020 07:15 AM 25.88 -10.84 66.20 28.94 15.0 x 2.46 SW 1.57 SW 4.70 SW x x Other     x x x x x 0.04 Unknown
11/28/2020 07:16 AM 26.06 -10.84 66.20 28.94 15.0 x 2.46 SW 3.58 SW 4.70 SW x x Other     x x x x x 0.04 Unknown
11/28/2020 07:17 AM 26.24 -10.66 66.20 28.94 15.0 x 3.13 SW 4.25 SW 4.70 SW x x Other     x x x x x 0.04 Unknown
11/28/2020 07:18 AM 26.24 -10.66 66.20 28.94 15.0 x 3.80 SW 4.03 SW 5.14 SW x x Other     x x x x x 0.04 Unknown
11/28/2020 07:19 AM 26.24 -10.66 66.20 28.94 15.0 x 4.25 SW 4.03 SW 5.14 SW x x Other     x x x x x 0.04 Unknown
11/28/2020 07:20 AM 26.24 -10.66 66.20 28.94 15.0 x 3.58 SW 3.58 SW 5.14 SW x x Other     x x x x x 0.04 Unknown
11/28/2020 07:21 AM 26.24 -10.66 66.20 28.94 15.0 x 3.58 SW 4.25 SW 5.14 SW x x Other     x x x x x 0.04 Unknown
11/28/2020 07:22 AM 26.24 -10.66 66.20 28.94 15.0 x 4.03 SW 4.25 SW 5.14 SW x x Other     x x x x x 0.04 Unknown
11/28/2020 07:23 AM 26.24 -10.66 66.20 28.94 15.0 x 4.25 SW 4.47 SW 5.14 SW x x Other     x x x x x 0.04 Unknown
11/28/2020 07:24 AM 26.24 -11.20 66.20 28.94 15.0 x 4.25 SW 4.25 SW 5.14 SW x x Other     x x x x x 0.04 Unknown
11/28/2020 07:25 AM 26.42 -11.02 66.20 28.94 15.0 x 4.03 SW 4.03 SW 5.14 SW x x Other     x x x x x 0.04 Unknown
11/28/2020 07:26 AM 26.42 -10.84 66.20 28.94 15.0 x 3.80 SW 3.13 S 5.14 SW x x Other     x x x x x 0.04 Unknown
11/28/2020 07:27 AM 26.60 -10.84 66.20 28.94 15.0 x 3.36 SW 2.68 SW 5.14 W x x Other     x x x x x 0.04 Unknown
11/28/2020 07:28 AM 26.96 -10.48 66.20 28.94 15.0 x 2.91 SW 3.13 S 4.92 S x x Other     x x x x x 0.04 Unknown
11/28/2020 07:30 AM 27.32 -10.12 66.20 28.94 15.0 x 3.36 SW 3.80 S 6.04 S x x Other     x x x x x 0.04 Unknown
11/28/2020 07:31 AM 27.50 -9.94 66.20 28.94 15.0 x 3.80 S 3.80 S 6.04 S x x Other     x x x x x 0.04 Unknown
11/28/2020 07:32 AM 27.68 -9.76 66.20 28.94 15.0 x 3.80 S 3.80 S 6.04 S x x Other     x x x x x 0.04 Unknown
11/28/2020 07:33 AM 27.86 -9.94 66.20 28.94 14.0 x 3.80 S 2.91 S 6.04 S x x Other     x x x x x 0.04 Unknown
11/28/2020 07:34 AM 28.04 -9.76 66.20 28.94 14.0 x 4.03 S 2.91 S 6.04 S x x Other     x x x x x 0.04 Unknown
11/28/2020 07:35 AM 28.40 -9.76 66.20 28.94 14.0 x 3.13 S 2.24 S 6.04 S x x Other     x x x x x 0.04 Unknown
11/28/2020 07:37 AM 28.58 -9.76 66.20 28.94 14.0 x 2.01 S 1.79 S 6.04 S x x Other     x x x x x 0.04 Unknown
11/28/2020 07:38 AM 28.76 -9.76 66.20 28.94 14.0 x 2.01 S 3.58 S 6.04 S x x Other     x x x x x 0.04 Unknown
11/28/2020 07:39 AM 28.94 -10.12 66.20 28.94 14.0 x 2.91 S 4.03 S 6.04 S x x Other     x x x x x 0.04 Unknown
11/28/2020 07:40 AM 29.12 -9.94 66.20 28.94 14.0 x 3.80 S 3.36 S 5.59 S x x Other     x x x x x 0.04 Unknown
11/28/2020 07:41 AM 29.12 -10.48 66.20 28.94 13.0 x 3.80 S 3.80 S 5.59 S x x Other     x x x x x 0.04 Unknown
11/28/2020 07:42 AM 29.30 -10.48 66.20 28.94 13.0 x 3.80 S 4.47 S 7.16 S x x Other     x x x x x 0.04 Unknown
11/28/2020 07:43 AM 29.30 -11.02 66.20 28.94 13.0 x 4.03 S 3.58 S 7.16 S x x Other     x x x x x 0.04 Unknown
11/28/2020 07:44 AM 29.30 -11.02 66.20 28.94 13.0 x 4.70 S 6.26 S 7.16 S x x Other     x x x x x 0.04 Unknown
11/28/2020 07:45 AM 29.48 -10.84 66.20 28.94 13.0 x 4.70 S 4.92 S 7.16 S x x Other     x x x x x 0.04 Unknown
11/28/2020 07:46 AM 29.66 -11.20 66.20 28.94 13.0 x 3.80 S 3.58 S 7.16 S x x Other     x x x x x 0.04 Unknown
11/28/2020 07:47 AM 29.66 -11.20 66.20 28.94 13.0 x 3.58 S 4.70 S 7.16 S x x Other     x x x x x 0.04 Unknown
11/28/2020 07:48 AM 29.84 -11.56 66.20 28.94 12.0 x 4.25 S 2.68 S 7.16 S x x Other     x x x x x 0.04 Unknown
11/28/2020 07:49 AM 30.02 -11.56 66.20 28.94 12.0 x 3.80 S 5.14 S 7.16 S x x Other     x x x x x 0.04 Unknown
11/28/2020 07:50 AM 30.38 -11.74 66.20 28.94 12.0 x 2.46 S 1.12 S 7.16 S x x Other     x x x x x 0.04 Unknown
11/28/2020 07:51 AM 30.38 -11.74 66.20 28.94 12.0 x 1.57 SW 0.45 SW 7.16 S x x Other     x x x x x 0.04 Unknown
11/28/2020 07:52 AM 30.56 -12.28 66.20 28.94 11.0 x 0.89 SW 0.89 SW 6.49 S x x Other     x x x x x 0.04 Unknown
11/28/2020 07:53 AM 30.56 -12.10 66.20 28.94 x x 0.89 SW 0.89 SW 6.49 S x x Other     x x x x x 0.04 Unknown
11/28/2020 07:54 AM 30.74 -12.10 66.20 28.94 11.0 x 1.34 SW 1.12 S 6.26 S x x Other     x x x x x 0.04 Unknown
11/28/2020 07:55 AM 30.92 -12.46 66.20 28.94 11.0 x 1.57 SW 0.00 SW 6.26 S x x Other     x x x x x 0.04 Unknown
11/28/2020 07:56 AM 31.10 -12.28 66.20 28.94 11.0 x 0.89 SW 0.00 SW 6.26 S x x Other     x x x x x 0.04 Unknown
11/28/2020 07:57 AM 31.10 -12.46 66.20 28.94 11.0 x 0.45 SW 1.34 SW 6.26 S x x Other     x x x x x 0.04 Unknown
11/28/2020 07:58 AM 31.28 -13.00 66.20 28.94 11.0 x 0.67 S 1.12 SW 5.14 S x x Other     x x x x x 0.04 Unknown
11/28/2020 07:59 AM 31.46 -12.82 66.20 28.94 11.0 x 1.34 SW 1.34 S 3.58 S x x Other     x x x x x 0.04 Unknown
11/28/2020 08:00 AM 31.46 -12.64 66.20 28.94 11.0 x 1.34 SW 1.79 S 3.58 S x x Other     x x x x x 0.04 Unknown
11/28/2020 08:01 AM 31.82 -13.18 66.20 28.94 10.0 x 1.34 SW 0.45 W 3.58 S x x Other     x x x x x 0.04 Unknown
11/28/2020 08:02 AM 31.82 -13.18 66.20 28.94 10.0 x 1.34 S 1.12 SW 3.58 S x x Other     x x x x x 0.04 Unknown
11/28/2020 08:03 AM 32.00 -13.00 66.20 28.94 10.0 x 1.12 W 1.12 SW 3.58 S x x Other     x x x x x 0.04 Unknown
11/28/2020 08:04 AM 32.18 -13.54 66.20 28.94 10.0 x 0.89 W 0.22 S 3.58 S x x Other     x x x x x 0.04 Unknown
11/28/2020 08:05 AM 32.54 -13.54 66.20 28.94 10.0 x 0.67 S 2.24 SE 3.58 S x x Other     x x x x x 0.04 Unknown
11/28/2020 08:06 AM 32.72 -13.90 66.20 28.94 10.0 x 0.67 S 1.34 S 3.58 S x x Other     x x x x x 0.04 Unknown
11/28/2020 08:07 AM 32.72 -13.90 66.20 28.94 10.0 x 1.12 S 0.45 S 3.58 S x x Other     x x x x x 0.04 Unknown
11/28/2020 08:08 AM 32.90 -13.72 66.20 28.94 10.0 x 1.34 S 1.34 SW 3.58 S x x Other     x x x x x 0.04 Unknown
11/28/2020 08:09 AM 33.08 -13.72 66.20 28.94 10.0 x 1.12 SW 1.57 S 3.58 S x x Other     x x x x x 0.04 Unknown
11/28/2020 08:10 AM 33.26 -13.54 66.20 28.94 10.0 x 1.12 S 1.12 SW 3.58 S x x Other     x x x x x 0.04 Unknown
11/28/2020 08:11 AM 33.44 -13.36 66.20 28.94 10.0 x 1.12 SW 1.12 S 3.58 S x x Other     x x x x x 0.04 Unknown
11/28/2020 08:12 AM 33.62 -13.18 66.20 28.94 10.0 x 1.12 SW 0.22 W 3.13 S x x Other     x x x x x 0.04 Unknown
11/28/2020 08:13 AM 33.62 -13.18 66.20 28.94 10.0 x 0.89 SW 1.34 S 3.13 S x x Other     x x x x x 0.04 Unknown
11/28/2020 08:14 AM 33.80 -13.00 66.20 28.94 10.0 x 0.89 W 0.00 SW 3.13 S x x Other     x x x x x 0.04 Unknown
11/28/2020 08:15 AM 34.16 -12.82 66.20 28.94 10.0 x 1.12 S 0.00 SW 3.13 S x x Other     x x x x x 0.04 Unknown
11/28/2020 08:16 AM 34.16 -12.64 66.20 28.94 10.0 x 1.12 W 0.45 W 3.13 S x x Other     x x x x x 0.04 Unknown
11/28/2020 08:17 AM 34.52 -12.46 66.20 28.94 10.0 x 0.67 W 1.12 SW 3.13 S x x Other     x x x x x 0.04 Unknown
11/28/2020 08:18 AM 34.52 -12.28 66.20 28.94 10.0 x 0.89 W 0.45 SW 3.13 S x x Other     x x x x x 0.04 Unknown
11/28/2020 08:19 AM 34.88 -12.10 66.20 28.94 10.0 x 0.89 W 0.67 SW 3.13 S x x Other     x x x x x 0.04 Unknown
11/28/2020 08:20 AM 35.06 -11.92 66.20 28.94 10.0 x 0.67 SW 0.00 NW 3.13 S x x Other     x x x x x 0.04 Unknown
11/28/2020 08:21 AM 35.06 -11.74 66.20 28.94 10.0 x 0.67 SW 0.89 NW 3.13 S x x Other     x x x x x 0.04 Unknown
11/28/2020 08:22 AM 35.42 -11.56 66.20 28.94 10.0 x 0.89 W 1.57 W 3.13 S x x Other     x x x x x 0.04 Unknown
11/28/2020 08:23 AM 35.42 -11.38 66.20 28.94 10.0 x 1.12 W 1.79 W 3.13 S x x Other     x x x x x 0.04 Unknown
11/28/2020 08:24 AM 35.78 -11.20 66.20 28.94 10.0 x 1.12 W 2.24 NW 3.13 S x x Other     x x x x x 0.04 Unknown
11/28/2020 08:25 AM 35.78 -11.02 66.20 28.94 10.0 x 0.89 W 0.00 NW 2.24 S x x Other     x x x x x 0.04 Unknown
11/28/2020 08:26 AM 35.96 -10.84 66.20 28.94 10.0 x 0.67 W 1.34 NW 2.24 S x x Other     x x x x x 0.04 Unknown
11/28/2020 08:28 AM 36.32 -10.48 66.20 28.94 10.0 x 1.12 W 0.00 W 2.68 W x x Other     x x x x x 0.04 Unknown
11/28/2020 08:29 AM 36.50 -10.48 66.20 28.94 10.0 x 0.67 W 1.12 W 2.68 W x x Other     x x x x x 0.04 Unknown
11/28/2020 08:30 AM 36.68 -10.30 66.20 28.94 10.0 x 0.67 W 0.00 SW 2.68 W x x Other     x x x x x 0.04 Unknown
11/28/2020 08:31 AM 36.68 -10.12 66.20 28.94 10.0 x 0.89 W 0.89 W 2.68 W x x Other     x x x x x 0.04 Unknown
11/28/2020 08:32 AM 37.04 -10.12 66.20 28.94 10.0 x 0.89 W 1.34 W 2.68 W x x Other     x x x x x 0.04 Unknown
11/28/2020 08:33 AM 37.04 -9.94 66.20 28.94 10.0 x 0.45 NW 0.22 E 2.68 W x x Other     x x x x x 0.04 Unknown
11/28/2020 08:34 AM 37.04 -9.76 66.20 28.94 10.0 x 0.22 SW 0.00 SW 2.68 W x x Other     x x x x x 0.04 Unknown
11/28/2020 08:35 AM 37.40 -9.58 66.20 28.94 10.0 x 0.00 SW 0.00 SW 2.68 W x x Other     x x x x x 0.04 Unknown
11/28/2020 08:36 AM 37.58 -9.40 66.20 28.94 10.0 x 0.00 SW 0.00 N 2.68 W x x Other     x x x x x 0.04 Unknown
11/28/2020 08:37 AM 37.58 -9.40 66.20 28.94 10.0 x 0.22 N 0.89 N 2.24 SW x x Other     x x x x x 0.04 Unknown
11/28/2020 08:38 AM 37.76 -9.22 66.20 28.94 10.0 x 0.22 N 0.00 NE 2.24 SW x x Other     x x x x x 0.04 Unknown
11/28/2020 08:39 AM 37.94 -9.04 66.20 28.94 10.0 x 0.22 NE 0.00 E 2.24 SW x x Other     x x x x x 0.04 Unknown
11/28/2020 08:41 AM 38.12 -8.86 66.20 28.94 10.0 x 0.00 NW 0.00 S 1.34 W x x Other     x x x x x 0.04 Unknown
11/28/2020 08:42 AM 38.30 -8.68 66.20 28.94 10.0 x 0.45 NE 0.00 S 2.91 SE x x Other     x x x x x 0.04 Unknown
11/28/2020 08:43 AM 38.30 -8.50 66.20 28.94 10.0 x 0.67 SW 1.12 SW 2.91 SE x x Other     x x x x x 0.04 Unknown
11/28/2020 08:44 AM 38.48 -8.50 66.20 28.94 10.0 x 0.45 W 0.22 W 2.91 SE x x Other     x x x x x 0.04 Unknown
11/28/2020 08:45 AM 38.66 -8.32 66.20 28.94 10.0 x 0.89 W 2.01 SE 2.91 SE x x Other     x x x x x 0.04 Unknown
11/28/2020 08:46 AM 38.66 -8.14 66.20 28.94 10.0 x 2.01 SE 4.03 S 4.70 S x x Other     x x x x x 0.04 Unknown
11/28/2020 08:47 AM 38.66 -8.14 66.20 28.94 10.0 x 2.01 E 0.00 S 4.70 S x x Other     x x x x x 0.04 Unknown
11/28/2020 08:48 AM 38.84 -8.14 66.20 28.94 10.0 x 0.89 NE 0.89 NE 4.70 S x x Other     x x x x x 0.04 Unknown
11/28/2020 08:49 AM 38.84 -8.14 66.20 28.94 10.0 x 0.45 NE 0.67 E 4.70 S x x Other     x x x x x 0.04 Unknown
11/28/2020 08:50 AM 38.66 -8.14 66.20 28.94 10.0 x 0.89 NE 1.12 E 4.70 S x x Other     x x x x x 0.04 Unknown
11/28/2020 08:51 AM 38.84 -8.14 66.20 28.94 10.0 x 0.89 E 0.67 E x S x x Other     x x x x x 0.04 Unknown
11/28/2020 08:52 AM 39.02 -7.96 66.20 28.94 10.0 x 0.89 E 0.89 NE 4.70 S x x Other     x x x x x 0.04 Unknown
11/28/2020 08:53 AM 39.20 -7.78 66.20 28.94 10.0 x 1.57 NE 2.68 NE 4.70 S x x Other     x x x x x 0.04 Unknown
11/28/2020 08:54 AM 39.20 -7.78 66.20 28.94 10.0 x 2.01 NE 1.79 N 4.70 S x x Other     x x x x x 0.04 Unknown
11/28/2020 08:55 AM 39.38 -7.60 66.20 28.94 10.0 x 2.01 NE 1.79 NE 4.70 S x x Other     x x x x x 0.04 Unknown
11/28/2020 08:56 AM 39.20 -7.78 66.20 28.94 10.0 x 2.24 NE 2.68 NE 4.25 E x x Other     x x x x x 0.04 Unknown
11/28/2020 08:57 AM 39.20 -7.78 66.20 28.94 10.0 x 2.24 NE 2.01 NE 4.25 E x x Other     x x x x x 0.04 Unknown
11/28/2020 08:58 AM 39.20 -7.78 66.20 28.94 10.0 x 2.24 NE 2.46 NE 4.25 E x x Other     x x x x x 0.04 Unknown
11/28/2020 08:59 AM 39.20 -7.78 66.20 28.94 10.0 x 2.24 NE 2.01 NE 4.25 E x x Other     x x x x x 0.04 Unknown
11/28/2020 09:00 AM 39.38 -7.60 66.20 28.94 10.0 x 2.24 NE 1.34 NE 4.25 E x x Other     x x x x x 0.04 Unknown
11/28/2020 09:01 AM 39.56 -7.42 66.20 28.94 10.0 x 1.79 NE 1.12 E 4.25 E x x Other     x x x x x 0.04 Unknown
11/28/2020 09:02 AM 39.56 -7.42 66.20 28.94 10.0 x 1.12 NE 1.79 E 4.25 E x x Other     x x x x x 0.04 Unknown
11/28/2020 09:03 AM 39.56 -7.42 66.20 28.94 10.0 x 1.34 NE 1.57 NE 3.13 NE x x Other     x x x x x 0.04 Unknown
11/28/2020 09:04 AM 39.56 -7.42 66.20 28.94 10.0 x 2.01 NE 1.57 NE 3.13 NE x x Other     x x x x x 0.04 Unknown
11/28/2020 09:05 AM 39.74 -7.24 66.20 28.94 10.0 x 2.01 NE 3.13 NE 3.13 NE x x Other     x x x x x 0.04 Unknown
11/28/2020 09:06 AM 39.74 -7.24 66.20 28.94 10.0 x 2.24 NE 2.68 NE 3.13 NE x x Other     x x x x x 0.04 Unknown
11/28/2020 09:07 AM 39.92 -7.06 66.20 28.94 10.0 x 2.68 NE 2.68 NE 3.36 NE x x Other     x x x x x 0.04 Unknown
11/28/2020 09:08 AM 39.92 -7.06 66.20 28.94 10.0 x 2.46 NE 1.79 NE 3.36 NE x x Other     x x x x x 0.04 Unknown
11/28/2020 09:09 AM 39.92 -7.06 66.20 28.94 10.0 x 2.24 NE 1.79 N 3.36 NE x x Other     x x x x x 0.04 Unknown
11/28/2020 09:10 AM 39.92 -7.06 66.20 28.94 10.0 x 1.79 NE 1.12 NE 3.36 NE x x Other     x x x x x 0.04 Unknown
11/28/2020 09:11 AM 40.28 -6.70 66.20 28.94 10.0 x 1.79 NE 1.57 NE 3.36 NE x x Other     x x x x x 0.04 Unknown
11/28/2020 09:12 AM 40.28 -6.70 66.20 28.94 10.0 x 2.46 NE 2.46 NE 3.36 NE x x Other     x x x x x 0.04 Unknown
11/28/2020 09:13 AM 40.28 -6.70 66.20 28.94 10.0 x 2.46 NE 1.79 NE 3.36 NE x x Other     x x x x x 0.04 Unknown
11/28/2020 09:14 AM 40.28 -6.70 66.20 28.94 10.0 x 2.46 NE 3.13 NE 3.80 NE x x Other     x x x x x 0.04 Unknown
11/28/2020 09:15 AM 40.46 -6.52 66.20 28.94 10.0 x 2.24 NE 2.01 NE 3.80 NE x x Other     x x x x x 0.04 Unknown
11/28/2020 09:16 AM 40.64 -6.52 66.20 28.94 10.0 x 2.24 NE 2.68 NE 3.80 NE x x Other     x x x x x 0.04 Unknown
11/28/2020 09:17 AM 40.64 -6.34 66.20 28.94 10.0 x 2.46 NE 2.46 NE 3.80 NE x x Other     x x x x x 0.04 Unknown
11/28/2020 09:18 AM 40.64 -6.16 66.20 28.94 10.0 x 2.46 NE 2.46 NE 3.80 NE x x Other     x x x x x 0.04 Unknown
11/28/2020 09:19 AM 40.64 -6.16 66.20 28.94 10.0 x 3.13 NE 4.25 NE 4.25 NE x x Other     x x x x x 0.04 Unknown
11/28/2020 09:20 AM 40.64 -6.34 66.20 28.94 10.0 x 3.58 NE 2.68 NE 4.70 NE x x Other     x x x x x 0.04 Unknown
11/28/2020 09:21 AM 40.64 -6.16 66.20 28.94 10.0 x 3.58 NE 4.70 NE 4.70 NE x x Other     x x x x x 0.04 Unknown
11/28/2020 09:22 AM 40.64 -6.16 66.20 28.94 10.0 x 3.36 NE 2.46 NE 4.92 NE x x Other     x x x x x 0.04 Unknown
11/28/2020 09:23 AM 40.82 -6.16 66.20 28.94 10.0 x 3.13 NE 3.36 NE 4.92 NE x x Other     x x x x x 0.04 Unknown
11/28/2020 09:24 AM 40.82 -6.16 66.20 28.94 10.0 x 2.68 NE 3.36 NE 4.92 NE x x Other     x x x x x 0.04 Unknown
11/28/2020 09:25 AM 41.00 -5.98 66.20 28.94 10.0 x 2.91 NE 3.58 N 4.92 NE x x Other     x x x x x 0.04 Unknown
11/28/2020 09:26 AM 41.00 -5.80 66.20 28.94 10.0 x 2.91 NE 2.46 NE 4.92 NE x x Other     x x x x x 0.04 Unknown
11/28/2020 09:27 AM 41.00 -5.80 66.20 28.94 10.0 x 2.68 NE 2.24 NE 4.92 NE x x Other     x x x x x 0.04 Unknown
11/28/2020 09:28 AM 41.18 -5.80 66.20 28.94 10.0 x 2.68 NE 1.57 N 4.92 NE x x Other     x x x x x 0.04 Unknown
11/28/2020 09:29 AM 41.36 -5.62 66.20 28.94 10.0 x 2.46 NE 2.46 NE 4.92 NE x x Other     x x x x x 0.04 Unknown
11/28/2020 09:30 AM 41.36 -5.62 66.20 28.94 10.0 x 2.68 NE 2.68 E 4.92 NE x x Other     x x x x x 0.04 Unknown
11/28/2020 09:31 AM 41.36 -5.62 66.20 28.94 10.0 x 2.91 NE 2.46 NE 4.70 N x x Other     x x x x x 0.04 Unknown
11/28/2020 09:32 AM 41.36 -5.44 66.20 28.94 10.0 x 3.36 NE 3.13 NE 4.92 NE x x Other     x x x x x 0.04 Unknown
11/28/2020 09:33 AM 41.36 -5.44 66.20 28.94 10.0 x 3.58 NE 4.25 NE 4.92 NE x x Other     x x x x x 0.04 Unknown
11/28/2020 09:34 AM 41.54 -5.44 66.20 28.94 10.0 x 3.36 NE 3.13 NE 4.92 NE x x Other     x x x x x 0.04 Unknown
11/28/2020 09:35 AM 41.54 -5.44 66.20 28.94 10.0 x 3.13 NE 2.68 NE 4.92 NE x x Other     x x x x x 0.04 Unknown
11/28/2020 09:36 AM 41.72 -5.26 66.20 28.94 10.0 x 2.68 NE 2.24 NE 4.92 NE x x Other     x x x x x 0.04 Unknown
11/28/2020 09:37 AM 41.72 -5.08 66.20 28.94 10.0 x 2.24 NE 3.13 NE 4.92 NE x x Other     x x x x x 0.04 Unknown
11/28/2020 09:38 AM 41.72 -5.08 66.20 28.94 10.0 x 2.68 NE 4.25 NE 4.92 NE x x Other     x x x x x 0.04 Unknown
11/28/2020 09:39 AM 41.90 -5.08 66.20 28.94 10.0 x 3.58 NE 5.37 NE 5.37 NE x x Other     x x x x x 0.04 Unknown
11/28/2020 09:40 AM 42.08 -4.90 66.20 28.94 10.0 x 3.58 NE 3.58 NE 5.37 NE x x Other     x x x x x 0.04 Unknown
11/28/2020 09:41 AM 42.08 -4.90 66.20 28.94 10.0 x 3.80 NE 4.70 N 5.37 NE x x Other     x x x x x 0.04 Unknown
11/28/2020 09:42 AM 42.08 -4.72 66.20 28.94 10.0 x 4.47 NE 3.36 NE 5.59 NE x x Other     x x x x x 0.04 Unknown
11/28/2020 09:43 AM 42.08 -4.72 66.20 28.94 10.0 x 4.47 NE 5.14 NE 5.59 NE x x Other     x x x x x 0.04 Unknown
11/28/2020 09:44 AM 42.08 -4.72 66.20 28.94 10.0 x 4.03 NE 2.91 NE 5.59 NE x x Other     x x x x x 0.04 Unknown
11/28/2020 09:45 AM 42.08 -4.72 66.20 28.94 10.0 x 3.58 NE 2.91 N 5.59 NE x x Other     x x x x x 0.04 Unknown
11/28/2020 09:46 AM 42.08 -4.72 66.20 28.94 10.0 x 3.58 NE 5.14 NE 5.59 NE x x Other     x x x x x 0.04 Unknown
11/28/2020 09:47 AM 42.08 -4.72 66.20 28.94 10.0 x 4.03 NE 4.25 NE 5.59 NE x x Other     x x x x x 0.04 Unknown
11/28/2020 09:48 AM 42.26 -4.72 66.20 28.94 10.0 x 4.47 NE 4.47 NE 5.59 NE x x Other     x x x x x 0.04 Unknown
11/28/2020 09:49 AM 42.26 -4.72 66.20 28.94 10.0 x 4.47 NE 4.47 NE 5.59 NE x x Other     x x x x x 0.04 Unknown
11/28/2020 09:50 AM 42.26 -4.72 66.20 28.94 10.0 x 4.25 NE 4.70 NE 5.59 NE x x Other     x x x x x 0.04 Unknown
11/28/2020 09:51 AM 42.44 -4.54 66.20 28.94 10.0 x 4.47 N 4.92 N 5.59 NE x x Other     x x x x x 0.04 Unknown
11/28/2020 09:52 AM 42.44 -4.36 66.20 28.94 10.0 x 4.47 NE 4.47 N 5.59 NE x x Other     x x x x x 0.04 Unknown
11/28/2020 09:53 AM 42.44 -4.36 66.20 28.94 10.0 x 4.47 NE 3.58 N 5.59 NE x x Other     x x x x x 0.04 Unknown
11/28/2020 09:54 AM 42.62 -4.36 66.20 28.94 10.0 x 4.25 NE 4.25 NE 5.59 NE x x Other     x x x x x 0.04 Unknown
11/28/2020 09:55 AM 42.80 -4.18 66.20 28.94 10.0 x 4.47 NE 4.03 NE 5.82 NE x x Other     x x x x x 0.04 Unknown
11/28/2020 09:56 AM 42.80 -4.18 66.20 28.94 10.0 x 4.70 NE 4.47 N 5.82 NE x x Other     x x x x x 0.04 Unknown
11/28/2020 09:57 AM 42.80 -4.18 66.20 28.94 10.0 x 4.47 N 4.70 NE 5.82 NE x x Other     x x x x x 0.04 Unknown
11/28/2020 09:58 AM 42.80 -4.00 66.20 28.94 10.0 x 4.70 NE 4.92 NE 5.82 NE x x Other     x x x x x 0.04 Unknown
11/28/2020 09:59 AM 42.80 -4.00 66.20 28.94 10.0 x 4.47 NE 4.25 NE 5.82 NE x x Other     x x x x x 0.04 Unknown
11/28/2020 10:00 AM 42.80 -4.00 66.20 28.94 10.0 x 3.80 NE 3.36 NE 5.82 NE x x Other     x x x x x 0.04 Unknown
11/28/2020 10:01 AM 42.80 -4.00 66.20 28.94 10.0 x 3.80 NE 4.92 NE 5.82 NE x x Other     x x x x x 0.04 Unknown
11/28/2020 10:02 AM 42.98 -3.82 66.20 28.94 10.0 x 3.80 NE 3.13 N 5.82 NE x x Other     x x x x x 0.04 Unknown
11/28/2020 10:03 AM 42.98 -3.82 66.20 28.94 10.0 x 3.58 NE 4.25 NE 5.82 NE x x Other     x x x x x 0.04 Unknown
11/28/2020 10:04 AM 43.16 -3.82 66.20 28.94 10.0 x 4.03 NE 4.03 N 5.82 N x x Other     x x x x x 0.04 Unknown
11/28/2020 10:05 AM 43.16 -3.82 66.20 28.94 10.0 x 4.25 NE 4.25 NE 5.82 N x x Other     x x x x x 0.04 Unknown
11/28/2020 10:06 AM 43.16 -3.64 66.20 28.94 10.0 x 4.47 NE 4.47 NE 5.59 NE x x Other     x x x x x 0.04 Unknown
11/28/2020 10:07 AM 43.16 -3.64 66.20 28.94 10.0 x 4.25 NE 4.70 NE 5.59 NE x x Other     x x x x x 0.04 Unknown
11/28/2020 10:08 AM 43.34 -3.46 66.20 28.94 10.0 x 3.80 NE 4.47 NE 5.59 NE x x Other     x x x x x 0.04 Unknown
11/28/2020 10:09 AM 43.34 -3.46 66.20 28.94 10.0 x 4.47 NE 5.59 NE 5.82 NE x x Other     x x x x x 0.04 Unknown
11/28/2020 10:10 AM 43.34 -3.46 66.20 28.94 10.0 x 4.47 NE 3.80 N 5.82 NE x x Other     x x x x x 0.04 Unknown
11/28/2020 10:11 AM 43.52 -3.28 66.20 28.94 10.0 x 4.03 NE 4.47 NE 5.82 NE x x Other     x x x x x 0.04 Unknown
11/28/2020 10:12 AM 43.52 -3.28 66.20 28.94 10.0 x 4.25 NE 4.03 NE 5.82 NE x x Other     x x x x x 0.04 Unknown
11/28/2020 10:13 AM 43.52 -3.28 66.20 28.94 10.0 x 4.70 NE 6.04 NE 6.04 NE x x Other     x x x x x 0.04 Unknown
11/28/2020 10:14 AM 43.70 -3.10 66.20 28.94 10.0 x 5.14 NE 4.92 NE 6.04 NE x x Other     x x x x x 0.04 Unknown
11/28/2020 10:15 AM 43.70 -3.10 66.20 28.94 10.0 x 4.47 NE 3.58 NE 6.04 NE x x Other     x x x x x 0.04 Unknown
11/28/2020 10:16 AM 43.88 -2.92 66.20 28.94 10.0 x 4.03 NE 4.25 NE 6.04 NE x x Other     x x x x x 0.04 Unknown
11/28/2020 10:17 AM 44.06 -2.74 66.20 28.94 10.0 x 4.03 NE 3.80 NE 6.04 NE x x Other     x x x x x 0.04 Unknown
11/28/2020 10:18 AM 44.06 -2.74 66.20 28.94 10.0 x 3.36 NE 3.36 NE 6.04 NE x x Other     x x x x x 0.04 Unknown
11/28/2020 10:19 AM 44.24 -2.56 66.20 28.94 10.0 x 3.80 NE 4.92 N 6.04 NE x x Other     x x x x x 0.04 Unknown
11/28/2020 10:20 AM 44.24 -2.56 66.20 28.94 10.0 x 5.14 N 4.92 NE 6.26 N x x Other     x x x x x 0.04 Unknown
11/28/2020 10:21 AM 44.42 -2.38 66.20 28.94 10.0 x 5.37 N 5.59 NE 6.26 N x x Other     x x x x x 0.04 Unknown
11/28/2020 10:22 AM 44.42 -2.38 66.20 28.94 10.0 x 5.37 NE 5.59 NE 6.26 N x x Other     x x x x x 0.04 Unknown
11/28/2020 10:24 AM 44.42 -2.38 66.20 28.94 10.0 x 4.47 NE 3.58 NE 6.49 NE x x Other     x x x x x 0.04 Unknown
11/28/2020 10:25 AM 44.42 -2.38 66.20 28.94 10.0 x 4.47 NE 4.92 N 6.49 NE x x Other     x x x x x 0.04 Unknown
11/28/2020 10:26 AM 44.60 -2.20 66.20 28.94 10.0 x 4.92 N 4.92 NE 6.49 NE x x Other     x x x x x 0.04 Unknown
11/28/2020 10:27 AM 44.60 -2.20 66.20 28.94 10.0 x 5.14 NE 3.80 NE 6.71 NE x x Other     x x x x x 0.04 Unknown
11/28/2020 10:28 AM 44.78 -2.02 66.20 28.94 10.0 x 4.70 NE 2.91 NE 6.71 NE x x Other     x x x x x 0.04 Unknown
11/28/2020 10:29 AM 44.78 -2.02 66.20 28.94 10.0 x 3.80 NE 3.36 NE 6.71 NE x x Other     x x x x x 0.04 Unknown
11/28/2020 10:30 AM 44.78 -2.02 66.20 28.94 10.0 x 3.58 NE 4.70 E 6.71 NE x x Other     x x x x x 0.04 Unknown
11/28/2020 10:31 AM 44.78 -2.02 66.20 28.94 10.0 x 4.03 NE 4.25 NE 6.71 NE x x Other     x x x x x 0.04 Unknown
11/28/2020 10:32 AM 44.96 -1.84 66.20 28.94 10.0 x 4.25 N 5.37 N 6.71 NE x x Other     x x x x x 0.04 Unknown
11/28/2020 10:33 AM 44.78 -2.02 66.20 28.94 10.0 x 4.47 N 4.47 NE 6.71 NE x x Other     x x x x x 0.04 Unknown
11/28/2020 10:34 AM 44.96 -1.84 66.20 28.94 10.0 x 4.03 NE 2.91 NE 6.71 NE x x Other     x x x x x 0.04 Unknown
11/28/2020 10:35 AM 44.96 -1.66 66.20 28.94 10.0 x 3.80 NE 3.36 N 6.71 NE x x Other     x x x x x 0.04 Unknown
11/28/2020 10:36 AM 45.14 -1.66 66.20 28.94 10.0 x 4.03 N 4.03 N 6.71 NE x x Other     x x x x x 0.04 Unknown
11/28/2020 10:37 AM 45.32 -1.48 66.20 28.94 10.0 x 4.03 N 5.14 NE 5.59 NE x x Other     x x x x x 0.04 Unknown
11/28/2020 10:38 AM 45.32 -1.30 66.20 28.94 10.0 x 4.25 NE 4.47 NE 5.59 NE x x Other     x x x x x 0.04 Unknown
11/28/2020 10:39 AM 45.32 -1.30 66.20 28.94 10.0 x 4.25 NE 4.03 NE 5.59 NE x x Other     x x x x x 0.04 Unknown
11/28/2020 10:40 AM 45.50 -1.30 66.20 28.94 10.0 x 4.25 NE 3.80 N 5.59 NE x x Other     x x x x x 0.04 Unknown
11/28/2020 10:41 AM 45.68 -1.12 66.20 28.94 10.0 x 4.25 NE 5.59 NE 5.59 NE x x Other     x x x x x 0.04 Unknown
11/28/2020 10:42 AM 45.68 -1.12 66.20 28.94 10.0 x 4.47 NE 4.92 NE 5.59 NE x x Other     x x x x x 0.04 Unknown
11/28/2020 10:43 AM 45.68 -1.12 66.20 28.94 10.0 x 4.92 NE 4.03 NE 6.49 NE x x Other     x x x x x 0.04 Unknown
11/28/2020 10:44 AM 45.68 -0.94 66.20 28.94 10.0 x 4.70 NE 4.92 NE 6.49 NE x x Other     x x x x x 0.04 Unknown
11/28/2020 10:45 AM 45.68 -1.12 66.20 28.94 10.0 x 4.92 NE 4.47 NE 6.49 NE x x Other     x x x x x 0.04 Unknown
11/28/2020 10:46 AM 45.68 -1.12 66.20 28.94 10.0 x 4.92 NE 4.47 NE 6.49 NE x x Other     x x x x x 0.04 Unknown
11/28/2020 10:47 AM 45.68 -1.12 66.20 28.94 10.0 x 4.92 NE 5.37 NE 7.38 NE x x Other     x x x x x 0.04 Unknown
11/28/2020 10:48 AM 45.68 -1.12 66.20 28.94 10.0 x 4.70 NE 3.13 NE 7.38 NE x x Other     x x x x x 0.04 Unknown
11/28/2020 10:49 AM 45.68 -0.94 66.20 28.94 10.0 x 4.25 NE 4.25 NE 7.38 NE x x Other     x x x x x 0.04 Unknown
11/28/2020 10:50 AM 45.68 -0.94 66.20 28.94 10.0 x 4.47 NE 3.58 NE 7.38 NE x x Other     x x x x x 0.04 Unknown
11/28/2020 10:52 AM 45.86 -0.94 66.20 28.94 10.0 x 3.13 NE 3.36 NE